     2              OBSERVATION DATA    GPS                 RINEX VERSION / TYPE
srx v1.3 (5/19/93) STARR 93/10/11 17:42:50                  PGM / RUN BY / DATE
                                                            COMMENT
sig: 9 8 7 6 5 4 1 0                                        COMMENT
sig: 9 8 7 6 5 4 1 0                                        COMMENT
sig: 9 8 7 6 5 4 1 0                                        COMMENT
Original Marker Name: sdgp                                  COMMENT
Campaign Name: Baja (Dixon) 1993                            COMMENT
4-Character Station Name: SDGP                              COMMENT
6-Character Antenna Code: DMRCHT                            COMMENT
Vertical Measurement Point: BCR                             COMMENT
Vertical Offset to Rinex Ref. Point: 0.0348                 COMMENT
Radial Measurement Point: ECF                               COMMENT
Radial Offset to Rinex Ref. Point: 0.1897                   COMMENT
Antenna Height from Field Measurement: 1.0700 m             COMMENT
Additional Antenna Identification Info.:                    COMMENT
Turborogue and Ashtech Choke Ring                           COMMENT
Original XYZ: -2493309.0382 -4655182.3466 3565500.9443      COMMENT
New XYZ position is based on association with SCEC monument COMMENT
E1C8S0M0+0011. Position of that monument is believed to be  COMMENT
valid to within 1 m horizontally; vertical accuracy         COMMENT
should be no worse than 3-times this value.                 COMMENT
                                                            COMMENT
Revised Rinex header created by UCSD GPS archive for        COMMENT
GSAC on 10-Nov-2004 (2004:315) 00:14:36 GMT                 COMMENT
For assistance contact dagnew@ucsd.edu                      COMMENT
or anderson@python.ucsd.edu                                 COMMENT
                                                            COMMENT
SDGPS18                                                     MARKER NAME
THE OBSERVER WAS?___JET PROPULSION LABORATORY               OBSERVER / AGENCY
108 TURBOROGUE SNR-8000 100.1                               REC # / TYPE / VERS
108 DORNE-MARGOL. TYPE T                                    ANT # / TYPE
 -2427650.0000 -4778682.0000  3445867.0000                  APPROX POSITION XYZ
        1.0182        0.0000        0.0000                  ANTENNA: DELTA H/E/N
     1     1     0                                          WAVELENGTH FACT L1/2
     4    L1    L2    P1    P2                              # / TYPES OF OBSERV
   120                                                      INTERVAL
  1993     4    16    14    38    0.000000                  TIME OF FIRST OBS
  1993     4    16    22    58    0.000000                  TIME OF LAST OBS
    18                                                      # OF SATELLITES
          01    12    12    12    12                        PRN / # OF OBS
          02   810   810   810   810                        PRN / # OF OBS
          11   641   641   641   641                        PRN / # OF OBS
          12    10    10    10    10                        PRN / # OF OBS
          13   300   300   300   300                        PRN / # OF OBS
          14   704   704   704   704                        PRN / # OF OBS
          15   611   611   611   611                        PRN / # OF OBS
          16   246   246   246   246                        PRN / # OF OBS
          18  1200  1200  1200  1200                        PRN / # OF OBS
          19  1398  1398  1398  1398                        PRN / # OF OBS
          22   643   643   643   643                        PRN / # OF OBS
          24    19    19    19    19                        PRN / # OF OBS
          25   306   306   306   306                        PRN / # OF OBS
          26   492   492   492   492                        PRN / # OF OBS
          27  1151  1151  1151  1151                        PRN / # OF OBS
          28   652   652   652   652                        PRN / # OF OBS
          29   965   965   965   965                        PRN / # OF OBS
                                                            END OF HEADER
 93 04 16 14 38 00.0000000  0  5 18 29 22 25 15
        -0.38318         0.43318  24303608.25518  24303610.32518
        -0.22018         0.12618  21737250.49618  21737250.92918
         0.07518        -0.03718  21894470.17218  21894471.61418
        -0.80718        -0.98718  22172939.93318  22172940.73818
        -0.38518         0.43418  22778424.08118  22778425.97118
 93 04 16 14 40 00.0000000  0  6 18 29 22 25 15 14
   -264440.53808   -206056.84708  24253286.82208  24253288.91308
   -127538.11108    -99380.07608  21712980.91108  21712981.36808
   -167883.28708   -130818.21108  21862523.08308  21862524.45308
    364210.83108    283800.13608  22242247.30408  22242248.10608
    403464.77708    314388.65308  22855201.00308  22855203.07708
        -0.05719         0.22218  20501161.30219  20501162.37118
 93 04 16 14 42 00.0000000  0  6 18 29 22 25 15 14
   -603073.80808   -469926.97208  24188847.36408  24188849.17708
   -327791.77108   -255421.92708  21674873.94708  21674874.33908
   -402754.42108   -313834.64008  21817828.62708  21817829.98608
    657360.69208    512228.42108  22298032.01208  22298032.88008
    735583.02508    573181.85508  22918401.16808  22918403.30308
   -199071.61009   -155120.50408  20463279.27709  20463280.41508
 93 04 16 14 44 00.0000000  0  6 18 29 22 25 15 14
   -940986.35908   -733235.49008  24124544.71608  24124546.63408
   -526373.66308   -410161.09108  21637085.04208  21637085.47408
   -629653.03508   -490638.72108  21774651.21208  21774652.55208
    953569.73308    743040.47508  22354398.85008  22354399.74008
   1070951.79108    834507.92508  22982219.88408  22982222.10708
   -390897.91109   -304595.58308  20426776.00109  20426777.07108
 93 04 16 14 46 00.0000000  0  6 18 29 22 25 15 14
  -1271105.04408   -990470.83608  24061725.03008  24061727.14608
   -715686.06108   -557677.28008  21601060.17608  21601060.50708
   -841343.07908   -655591.97808  21734367.89808  21734369.15808
   1259999.53308    981816.75708  22412710.69408  22412711.51108
   1416453.01908   1103729.42008  23047966.87208  23047969.03108
   -567751.72109   -442403.79008  20393121.85809  20393122.93908
 93 04 16 14 48 00.0000000  0  6 18 29 22 25 15 14
  -1593555.35008  -1241730.84808  24000364.90508  24000366.88308
   -896011.97608   -698191.01308  21566745.35608  21566745.73708
  -1038014.34208   -808842.30208  21696942.60808  21696943.86608
   1576477.01408   1228422.39208  22472934.55608  22472935.43908
   1771546.33308   1380425.25508  23115539.07308  23115541.20808
   -729845.56509   -568710.73508  20362276.45709  20362277.57808
 93 04 16 14 50 00.0000000  0  6 18 29 22 25 15 14
  -1909398.82008  -1487842.67008  23940262.04808  23940263.96208
  -1068460.73208   -832566.70108  21533929.50208  21533929.90708
  -1220448.09208   -950998.45508  21662226.51308  21662227.92208
   1901751.93608   1481883.16308  22534832.42908  22534833.50508
   2135106.25608   1663718.42808  23184722.41308  23184724.58408
   -878418.47409   -684481.87908  20334004.03009  20334005.10808
 93 04 16 14 52 00.0000000  0  6 18 29 22 25 15 14
  -2220536.41908  -1730287.55708  23881054.70708  23881056.49308
  -1235007.66208   -962343.56508  21502236.69808  21502237.09008
  -1390152.16308  -1083235.38408  21629932.97908  21629934.27008
   2233850.91808   1740661.36008  22598028.94308  22598030.13308
   2505285.40508   1952169.45108  23255165.45908  23255167.73608
  -1015168.54209   -791040.41108  20307981.43209  20307982.52908
 93 04 16 14 54 00.0000000  0  6 18 29 22 25 15 14
  -2527807.50908  -1969719.57408  23822582.86008  23822584.79008
  -1396718.80908  -1088352.29808  21471464.10708  21471464.47108
  -1548263.98008  -1206439.38908  21599845.24808  21599846.68108
   2571742.37608   2003953.17108  22662327.73308  22662328.92508
   2880612.72508   2244632.01408  23326588.18908  23326590.59508
  -1140617.49509   -888792.88008  20284109.32109  20284110.50408
 93 04 16 14 56 00.0000000  0  6 29 18 22 25 15 14
  -1554048.44808  -1210946.86508  21441525.32708  21441525.73808
  -2832310.55008  -2206994.63808  23764637.63008  23764639.65408
  -1695502.35108  -1321170.56908  21571826.79208  21571828.11708
   2914224.58608   2270822.16708  22727499.96808  22727501.39908
   3260044.33708   2540292.71108  23398791.95008  23398794.30508
  -1255662.15709   -978438.11708  20262217.06609  20262218.20208
 93 04 16 14 58 00.0000000  0  7 29 18 22 25 15 14 19
  -1708115.57908  -1330999.20508  21412207.32508  21412207.79908
  -3134662.02908  -2442593.17808  23707102.14708  23707104.06908
  -1832538.24208  -1427951.75308  21545749.77308  21545750.98608
   3260527.91608   2540668.64008  22793399.52108  22793401.01608
   3642589.43908   2838379.47708  23471587.81008  23471590.31408
  -1361129.58509  -1060620.57408  20242147.38309  20242148.50808
         0.36818         0.26417  24989550.64218  24989553.97617
 93 04 16 15 00 00.0000000  0  7 29 18 22 25 15 14 19
  -1858741.14108  -1448369.80208  21383544.28508  21383544.70908
  -3435072.16908  -2676678.99508  23649936.06508  23649937.99208
  -1959235.94608  -1526677.22008  21521640.06508  21521641.22808
   3610496.58408   2813371.23008  22859996.64508  22859998.16408
   4028072.18608   3138755.31608  23544942.77408  23544945.52608
  -1456826.78209  -1135189.87408  20223936.82309  20223937.98408
   -389785.35108   -303728.71507  24915376.75708  24915380.23907
 93 04 16 15 02 00.0000000  0  7 29 22 18 25 15 14 19
  -2006265.41808  -1563323.82508  21355471.45908  21355471.89908
  -2076045.82808  -1617697.90808  21499411.75008  21499413.06408
  -3733944.58708  -2909566.56708  23593062.58908  23593064.53108
   3963380.91808   3088345.74608  22927148.51508  22927150.06008
   4415736.48208   3440831.06708  23618713.40708  23618715.99208
  -1543232.45409  -1202519.02008  20207494.45409  20207495.66108
   -776311.07108   -604917.57907  24841822.95108  24841826.78807
 93 04 16 15 04 00.0000000  0  7 29 22 18 25 15 14 19
  -2151662.10708  -1676619.98608  21327803.37408  21327803.88808
  -2183554.93408  -1701471.25408  21478953.48008  21478954.79608
  -4031894.10108  -3141734.99208  23536364.56508  23536366.56408
   4318093.82708   3364745.12908  22994648.54608  22994649.98808
   4804696.37408   3743916.37508  23692730.39908  23692732.99708
  -1620638.34609  -1262835.34708  20192764.59409  20192765.84908
  -1160561.45008   -904333.44007  24768702.56408  24768706.32607
 93 04 16 15 06 00.0000000  0  7 29 22 18 25 15 14 19
  -2294262.69208  -1787737.35008  21300667.40408  21300667.91208
  -2281309.91808  -1777643.98108  21460351.33208  21460352.69908
  -4328356.96908  -3372744.98308  23479949.55208  23479951.37908
   4675406.14808   3643170.01008  23062643.06708  23062644.48608
   5195114.61708   4048138.07308  23767024.67708  23767027.47508
  -1688909.31709  -1316033.56208  20179773.13109  20179774.35908
  -1541663.38308  -1201295.77107  24696181.50808  24696184.80007
 93 04 16 15 08 00.0000000  0  7 29 22 18 25 15 14 19
  -2433995.13708  -1896619.80908  21274077.27608  21274077.71208
  -2368832.01908  -1845843.03408  21443696.41008  21443697.79608
  -4623306.19908  -3602575.52208  23423822.64308  23423824.45808
   5035378.20508   3923667.41008  23131143.73708  23131145.07608
   5587189.90108   4353650.97908  23841634.32108  23841637.16908
  -1747507.65909  -1361694.66808  20168622.29509  20168623.49408
  -1918988.95708  -1495315.48207  24624378.63108  24624381.97607
 93 04 16 15 10 00.0000000  0  7 29 22 18 25 14 15 19
  -2571247.47908  -2003569.72608  21247959.05208  21247959.52108
  -2446827.23008  -1906618.53408  21428854.58408  21428855.78108
  -4917532.65508  -3831842.82408  23367833.10508  23367834.94408
   5396976.52108   4205432.01208  23199953.89608  23199955.41308
  -1797225.45109  -1400435.86608  20159161.42209  20159162.65408
   5979940.38508   4659690.00108  23916372.48408  23916375.41608
  -2293565.49908  -1787193.19808  24553098.91208  24553102.52608
 93 04 16 15 12 00.0000000  0  7 29 22 18 25 14 15 19
  -2706946.82608  -2109309.51108  21222136.30608  21222136.85008
  -2515726.78608  -1960306.50708  21415743.43908  21415744.62208
  -5211273.87108  -4060732.01708  23311936.09408  23311937.88408
   5759909.96908   4488236.98108  23269018.05608  23269019.57908
  -1838280.12809  -1432426.58808  20151348.98409  20151350.23008
   6372670.24208   4965712.92208  23991106.70208  23991109.80008
  -2665428.60208  -2076956.61708  24482335.78908  24482339.18108
 93 04 16 15 14 00.0000000  0  7 29 22 18 25 14 15 19
  -2841035.68908  -2213794.37808  21196620.19308  21196620.65008
  -2575647.86208  -2006998.26908  21404340.79208  21404342.07308
  -5504679.14508  -4289359.47608  23256102.71108  23256104.78208
   6123420.53508   4771491.65308  23338191.89308  23338193.56708
  -1871185.60809  -1458067.28708  20145087.29409  20145088.58608
   6765002.76808   5271426.22108  24065765.52708  24065768.57008
  -3034942.63208  -2364889.61208  24412019.81708  24412022.98108
 93 04 16 15 16 00.0000000  0  7 29 22 18 25 15 14 19
  -2972385.93108  -2316145.23808  21171625.02108  21171625.56708
  -2625890.32708  -2046148.26508  21394780.02608  21394781.28908
  -5797095.79208  -4517216.56408  23200457.68008  23200459.63108
   6488260.69008   5055782.35908  23407618.85508  23407620.68808
   7157390.68308   5577182.66708  24140434.78208  24140437.95708
  -1894577.83909  -1476295.07408  20140635.98709  20140637.26708
  -3401395.05308  -2650436.93308  24342285.97408  24342289.43808
 93 04 16 15 18 00.0000000  0  7 29 22 18 25 15 14 19
  -3101300.86908  -2416598.46208  21147093.34608  21147093.81008
  -2666404.65308  -2077717.91508  21387070.40808  21387071.71108
  -6088718.95908  -4744455.37608  23144963.83908  23144965.53008
   6854503.22908   5341165.81008  23477312.83808  23477314.83708
   7549643.69008   5882833.95208  24215078.31708  24215081.56108
  -1908452.31709  -1487106.41908  20137995.77809  20137997.08608
  -3764864.40308  -2933659.72808  24273119.91808  24273123.40208
 93 04 16 15 20 00.0000000  0  7 29 22 18 25 15 14 19
  -3227788.11408  -2515159.97508  21123023.66108  21123024.18008
  -2697164.67108  -2101686.82108  21381217.00808  21381218.41708
  -6379124.35408  -4970745.25508  23089701.42408  23089703.13808
   7221686.00508   5627281.90008  23547185.82508  23547187.75308
   7941556.18008   6188219.90408  24289657.19508  24289660.44408
  -1913636.43309  -1491146.05408  20137009.39909  20137010.70408
  -4125543.97608  -3214708.61308  24204484.74208  24204488.29708
 93 04 16 15 22 00.0000000  0  7 29 22 18 25 15 14 19
  -3352340.12508  -2612213.52708  21099322.22108  21099322.76808
  -2718273.41308  -2118135.25708  21377200.20108  21377201.62208
  -6668765.56508  -5196439.64908  23034584.45708  23034586.35908
   7589966.82708   5914253.60308  23617267.62208  23617269.67208
   8332802.10808   6493086.42708  24364109.02608  24364112.55608
  -1909634.32309  -1488027.59808  20137771.03709  20137772.38208
  -4482669.76308  -3492988.29508  24136525.95408  24136529.44608
 93 04 16 15 24 00.0000000  0  7 29 22 18 25 15 14 19
  -3474250.40008  -2707208.58408  21076123.50708  21076124.06708
  -2729766.36508  -2127090.87108  21375013.26908  21375014.61508
  -6957741.13208  -5421615.36008  22979594.02908  22979596.13208
   7959059.98908   6201858.31008  23687503.90208  23687506.16508
   8723132.88808   6797239.82608  24438386.82508  24438390.36108
  -1896343.47209  -1477671.15908  20140300.24009  20140301.61308
  -4836526.70808  -3768720.82608  24069189.47308  24069192.56108
 93 04 16 15 26 00.0000000  0  7 29 22 18 25 15 14 19
  -3593811.34808  -2800372.99708  21053371.81708  21053372.41508
  -2731649.79908  -2128558.54108  21374654.86008  21374656.31108
  -7246046.27108  -5646268.66308  22924731.36708  22924733.46908
   8328476.52808   6489714.95608  23757801.71408  23757804.16008
   9112339.24008   7100517.02908  24512450.78008  24512454.36408
  -1873701.04709  -1460027.78608  20144609.03609  20144610.42708
  -5187934.70608  -4042545.07008  24002318.53208  24002321.65408
 93 04 16 15 28 00.0000000  0  7 29 22 18 25 15 19 14
  -3710972.26708  -2891667.24608  21031076.91008  21031077.45108
  -2723857.89108  -2122486.96708  21376137.62608  21376139.07008
  -7533553.26508  -5870300.03208  22870020.69208  22870022.51908
   8698486.80308   6778034.25708  23828212.67408  23828215.21608
   9500294.22308   7402819.12008  24586276.53108  24586280.34808
  -5535712.94008  -4313540.97708  23936138.30308  23936141.52108
  -1842000.41709  -1435326.06608  20150641.54309  20150642.91908
 93 04 16 15 30 00.0000000  0  7 29 22 18 25 15 19 14
  -3825590.80708  -2980980.41808  21009265.75108  21009266.29108
  -2706501.80008  -2108962.77308  21379440.51408  21379441.84808
  -7819825.32708  -6093369.13908  22815544.92608  22815546.74908
   9068517.77208   7066369.64908  23898627.69608  23898630.16808
   9886698.16208   7703912.60207  24659807.00608  24659811.09907
  -5880389.58608  -4582120.05408  23870548.33408  23870551.42208
  -1801402.51109  -1403691.41008  20158367.06109  20158368.46308
 93 04 16 15 32 00.0000000  0  7 22 18 25 15 19 14 29
  -2679425.66508  -2087864.50808  21384592.86608  21384594.28708
  -8105194.59108  -6315734.75208  22761240.86208  22761242.79908
   9438910.15808   7354986.66708  23969111.22608  23969113.91208
  10271531.02508   8003781.81807  24733038.58508  24733042.73707
  -6221792.36408  -4848148.03208  23805581.44608  23805584.41508
  -1751097.43609  -1364492.72108  20167939.84709  20167941.26808
  -3937852.95708  -3068457.43108  20987903.08308  20987903.56408
 93 04 16 15 34 00.0000000  0  7 22 18 25 15 19 14 29
  -2642585.93108  -2059158.25408  21391603.35608  21391604.64308
  -8389782.33808  -6537491.39908  22707085.92308  22707087.55108
   9809769.54608   7643967.55608  24039683.85108  24039686.72508
  10654670.44308   8302331.43907  24805948.21708  24805952.29707
  -6559661.27508  -5111422.37008  23741287.03908  23741290.07008
  -1691438.33409  -1318005.18608  20179292.68709  20179294.12308
  -4047469.92708  -3153873.27008  20967043.63308  20967044.17408
 93 04 16 15 36 00.0000000  0  7 22 18 25 15 19 14 29
  -2595932.24908  -2022804.77508  21400481.24108  21400482.59908
  -8672996.05108  -6758177.35208  22653191.91608  22653193.60608
  10180975.87608   7933218.80008  24110322.50508  24110325.35908
  11036008.54908   8599477.42707  24878515.09308  24878519.33007
  -6894034.29408  -5371972.64108  23677657.94208  23677660.96708
  -1622386.79209  -1264198.86708  20192432.83009  20192434.30108
  -4154308.93408  -3237124.49508  20946712.85808  20946713.48208
 93 04 16 15 38 00.0000000  0  7 22 18 25 15 19 14 29
  -2539497.75208  -1978829.89908  21411220.49008  21411221.75908
  -8954962.62208  -6977891.52308  22599535.30508  22599537.12908
  10552505.09108   8222721.60208  24181022.42708  24181025.52608
  11415366.31808   8895080.27307  24950704.93408  24950709.37407
  -7224905.08208  -5629793.87808  23614695.35708  23614698.32508
  -1543694.15009  -1202879.99508  20207407.63809  20207409.03108
  -4258162.78008  -3318049.60608  20926950.15808  20926950.78808
 93 04 16 15 40 00.0000000  0  7 22 18 19 25 15 14 29
  -2473943.93808  -1927749.06908  21423695.01608  21423696.30108
  -9236595.83008  -7197345.93708  22545942.29308  22545944.07708
  -7552471.63708  -5885040.38908  23552361.36708  23552364.25208
  10923566.84508   8511860.11308  24251633.51608  24251636.76408
  11791942.48407   9188515.59107  25022365.43007  25022369.97707
  -1456351.51809  -1134820.87808  20224028.43109  20224029.89508
  -4359780.80108  -3397232.50508  20907612.90708  20907613.52408
 93 04 16 15 42 00.0000000  0  7 22 18 19 25 15 29 14
  -2399654.07408  -1869860.94308  21437831.98608  21437833.38108
  -9517533.71108  -7416258.53108  22492481.61308  22492483.31308
  -7877668.33408  -6138440.26908  23490478.14908  23490481.21408
  11293523.34808   8800137.38507  24322034.18308  24322037.44807
  12165225.02007   9479384.43807  25093399.33707  25093404.06807
  -4459594.31908  -3475009.31108  20888619.13408  20888619.63008
  -1360549.80609  -1060170.27608  20242258.91409  20242260.48808
 93 04 16 15 44 00.0000000  0  7 22 18 19 25 15 29 14
  -2315540.38908  -1804317.88408  21453838.31208  21453839.71808
  -9797149.68308  -7634141.07408  22439272.39608  22439274.17908
  -8198990.64808  -6388821.15308  23429332.49708  23429335.50308
  11663467.09008   9088404.72308  24392432.59808  24392435.96808
  12536179.67207   9768439.32507  25163989.96207  25163995.14907
  -4556201.16308  -3550287.40308  20870235.40608  20870236.08108
  -1255268.88809   -978133.29508  20262293.28209  20262294.87108
 93 04 16 15 46 00.0000000  0  7 22 18 19 25 15 29 14
  -2221525.98708  -1731059.97908  21471728.72608  21471730.12408
 -10075182.70308  -7850790.14708  22386364.35608  22386366.21308
  -8516175.99008  -6635978.42208  23368974.05408  23368976.85708
  12033484.68908   9376729.61608  24462845.19408  24462848.55608
  12904775.29307  10055655.95707  25234131.92707  25234137.21207
  -4649379.71608  -3622894.09008  20852504.20108  20852504.82308
  -1140550.66409   -888742.56708  20284123.50109  20284125.10508
 93 04 16 15 48 00.0000000  0  7 22 18 19 25 15 29 14
  -2118237.65508  -1650575.61008  21491383.90008  21491385.28208
 -10352234.98908  -8066675.00308  22333643.16108  22333644.96408
  -8830063.86908  -6880566.25308  23309243.17008  23309245.87408
  12403097.90808   9664739.41207  24533180.51508  24533184.08607
  13270281.54507  10340465.22007  25303686.09207  25303691.51307
  -4739627.04308  -3693216.72308  20835330.69608  20835331.39808
  -1016790.98709   -792306.54208  20307674.22109  20307675.91108
 93 04 16 15 50 00.0000000  0  7 18 22 19 25 15 29 14
 -10627868.76408  -8281454.50908  22281191.75808  22281193.61508
  -2005659.37408  -1562852.31508  21512806.88608  21512808.27408
  -9140181.99908  -7122216.60408  23250229.62308  23250232.34908
  12772289.22408   9952420.43407  24603435.57508  24603439.29307
  13632621.71907  10622807.33307  25372637.92207  25372643.33507
  -4826919.08908  -3761236.51808  20818719.57908  20818720.31008
   -883569.07509   -688497.33608  20333025.66209  20333027.24508
 93 04 16 15 52 00.0000000  0  7 18 22 19 25 15 29 14
 -10902016.90908  -8495076.37308  22229023.10608  22229024.89708
  -1883933.70808  -1468001.18308  21535970.56008  21535971.93008
  -9446848.11608  -7361177.09508  23191872.67808  23191875.52708
  13140495.57808  10239333.98807  24673503.47408  24673507.25307
  13991571.98207  10902508.01507  25440944.41707  25440950.23407
  -4911294.66908  -3826983.74208  20802663.51308  20802664.19108
   -741370.98309   -577693.71508  20360085.11409  20360086.73708
 93 04 16 15 54 00.0000000  0  7 18 22 19 25 15 29 14
 -11175406.90108  -8708107.50108  22176998.71908  22177000.38708
  -1753312.95408  -1366218.83008  21560826.75408  21560828.36408
  -9750329.55508  -7597656.03708  23134121.98708  23134124.82108
  13508187.08008  10525846.32107  24743473.28208  24743477.21807
  14346805.74007  11179312.82307  25508543.65907  25508549.80407
  -4992957.72708  -3890617.31408  20787123.54708  20787124.16608
   -590719.24709   -460302.85108  20388753.31209  20388754.92608
 93 04 16 15 56 00.0000000  0  7 18 22 19 25 15 29 14
 -11446921.16308  -8919677.02708  22125331.25808  22125332.99408
  -1613240.60508  -1257071.62508  21587481.80608  21587483.34208
 -10049324.15808  -7830638.75308  23077225.48208  23077227.94508
  13875407.38008  10811991.49607  24813353.41208  24813357.35407
  14698812.18407  11453602.88407  25575528.69207  25575534.93007
  -5071180.36008  -3951570.03608  20772238.30508  20772238.99008
   -430657.12509   -335579.20908  20419212.14409  20419213.81208
 93 04 16 15 58 00.0000000  0  7 18 22 19 25 15 29 14
 -11716467.94808  -9129713.44008  22074038.14908  22074039.90508
  -1463634.22008  -1140495.30508  21615951.06908  21615952.50508
 -10344496.97408  -8060643.44608  23021055.64008  23021058.35308
  14242171.30907  11097781.04707  24883146.47607  24883150.76607
  15047618.26807  11725399.16807  25641904.78507  25641910.98207
  -5145328.60409  -4009347.90708  20758128.38909  20758129.08208
   -261139.44709   -203487.59608  20451470.36109  20451471.98608
 93 04 16 16 00 00.0000000  0  7 18 22 19 25 15 29 14
 -11984555.70308  -9338612.94508  22023022.69008  22023024.37108
  -1305370.35208  -1017172.90008  21646067.61408  21646069.19608
 -10636432.88308  -8288125.85408  22965501.90508  22965504.72208
  14607888.79207  11382755.20607  24952740.35407  24952745.06507
  15392299.01207  11993981.02607  25707495.44407  25707502.11707
  -5216288.32409  -4064641.22008  20744625.25009  20744625.98908
    -82997.40609    -64675.69908  20485369.75509  20485371.36608
 93 04 16 16 02 00.0000000  0  7 18 22 19 25 29 14 15
 -12251155.70908  -9546353.15708  21972290.34408  21972292.04508
  -1138574.86908   -887202.51408  21677807.80408  21677809.57708
 -10924722.52208  -8512767.01708  22910642.24408  22910644.94008
  14972479.56007  11666851.40507  25022120.17307  25022124.80407
  -5284268.87609  -4117613.09908  20731688.96409  20731689.72708
    103485.49109     80635.56008  20520856.26409  20520858.01208
  15732692.57906  12259222.47206  25772270.65106  25772277.30506
 93 04 16 16 04 00.0000000  0  6 18 22 19 25 29 14
 -12516492.48908  -9753109.04608  21921798.42308  21921800.07808
   -963180.29408   -750531.52508  21711184.48808  21711186.07708
 -11209066.24808  -8734333.45808  22856533.34508  22856536.03108
  15336150.15407  11950230.65007  25091324.92907  25091329.55107
  -5349059.68509  -4168099.46108  20719359.73909  20719360.38908
    298669.11709    232726.60208  20557998.59409  20558000.30708
 93 04 16 16 06 00.0000000  0  6 18 22 19 25 29 14
 -12779925.16108  -9958381.20808  21871668.74208  21871670.45708
   -779198.89108   -607169.49908  21746195.00508  21746196.59308
 -11490046.93608  -8953279.37008  22803064.48408  22803067.06308
  15698628.04507  12232680.55307  25160302.49807  25160307.18307
  -5410225.16209  -4215760.89008  20707720.31109  20707720.99208
    502328.67609    391422.26408  20596753.78509  20596755.51508
 93 04 16 16 08 00.0000000  0  5 18 22 19 29 14
 -13041291.50008 -10162043.23908  21821932.50808  21821934.14808
   -586398.86708   -456935.81708  21782883.81608  21782885.44008
 -11766878.10008  -9168991.89408  22750385.26108  22750387.81208
  -5467356.08909  -4260278.50608  20696848.66509  20696849.34408
    714706.33009    556911.24208  20637167.97809  20637169.74808
 93 04 16 16 10 00.0000000  0  5 18 22 19 29 14
 -13300086.84708 -10363701.89208  21772685.28708  21772686.96308
   -384813.59308   -299856.48008  21821244.32608  21821245.97108
 -12039231.83708  -9381215.50108  22698557.97208  22698560.59708
  -5520751.47109  -4301885.31008  20686687.89109  20686688.57108
    936064.34809    729397.89608  20679291.07109  20679292.90108
 93 04 16 16 12 00.0000000  0  6 18 22 19 28 29 14
 -13557131.21008 -10563996.17408  21723771.42308  21723773.02308
   -175019.51008   -136380.67008  21861166.76808  21861168.51608
 -12308022.15608  -9590662.38508  22647408.81508  22647411.30108
        -0.72517        -0.46417  25179173.35817  25179177.85217
  -5570071.92309  -4340316.86108  20677302.55009  20677303.25508
   1165530.94709    908202.91608  20722957.30509  20722959.14208
 93 04 16 16 14 00.0000000  0  6 18 22 19 28 29 14
 -13812667.80808 -10763115.56408  21675144.32508  21675145.98808
     42723.45408     33289.09408  21902601.96508  21902603.77508
 -12573191.03608  -9797287.39408  22596948.93208  22596951.18208
   -275428.04107   -214618.84007  25126760.44807  25126765.38007
  -5615673.25109  -4375850.37908  20668624.98609  20668625.61908
   1403008.11708   1093249.93508  20768147.77108  20768149.64008
 93 04 16 16 16 00.0000000  0  6 18 22 19 28 29 14
 -14065828.08508 -10960383.25508  21626969.46408  21626971.05308
    268349.86908    209101.79708  21945537.37508  21945539.10408
 -12834512.03008 -10000914.06408  22547220.94208  22547223.39108
   -550584.17907   -429025.95107  25074399.86707  25074404.68107
  -5658034.56109  -4408859.21608  20660563.87109  20660564.53108
   1648489.69108   1284534.14308  20814861.42408  20814863.46408
 93 04 16 16 18 00.0000000  0  6 18 22 19 28 29 14
 -14316868.75008 -11155999.33608  21579198.03008  21579199.60608
    501637.65008    390884.39408  21989930.53408  21989932.25008
 -13092569.79508 -10201997.96708  22498114.28908  22498116.64808
   -825746.88807   -643438.19107  25022037.95107  25022042.85907
  -5696358.42909  -4438721.99708  20653271.09309  20653271.83708
   1901584.14608   1481750.46608  20863023.83408  20863025.73308
 93 04 16 16 20 00.0000000  0  6 18 22 19 28 29 14
 -14565680.25908 -11349878.41508  21531850.80708  21531852.38408
    742903.84708    578883.93708  22035842.11508  22035843.86408
 -13346537.16508 -10399894.54708  22449785.79708  22449788.20108
  -1099881.35807   -857049.16107  24969871.78207  24969876.42207
  -5730349.38209  -4465208.49208  20646802.98609  20646803.60608
   2162660.39608   1685186.38208  20912705.06208  20912707.06708
 93 04 16 16 22 00.0000000  0  6 18 14 22 19 28 29
 -14811520.21608 -11541442.00708  21485068.97808  21485070.58408
   2432238.89008   1895247.41908  20964004.14308  20964006.30908
    992344.92608    773253.48908  22083309.34408  22083311.07308
 -13596087.64708 -10594349.38408  22402297.86508  22402300.22008
  -1372332.93107  -1069348.74907  24918025.43407  24918030.37007
  -5759557.73209  -4487968.28908  20641244.77009  20641245.47408
 93 04 16 16 24 00.0000000  0  6 18 14 22 19 28 29
 -15055019.42108 -11731181.62608  21438732.55808  21438734.16108
   2709275.32508   2111119.83408  21016722.56308  21016724.64408
   1249082.30208    973308.42808  22132164.88908  22132166.68608
 -13841779.56208 -10785797.55908  22355544.15808  22355546.50808
  -1643999.54107  -1281036.79507  24866328.68107  24866333.59707
  -5784546.55109  -4507440.14908  20636489.49409  20636490.33008
 93 04 16 16 26 00.0000000  0  6 18 14 22 19 28 29
 -15295990.52708 -11918951.30508  21392877.24908  21392878.84608
   2993579.36208   2332655.30108  21070823.93108  21070826.02908
   1512867.80808   1178855.39808  22182361.74408  22182363.67908
 -14084129.60908 -10974641.67508  22309426.34308  22309428.76608
  -1914671.31608  -1491949.65407  24814821.51008  24814826.21207
  -5805826.64309  -4524022.08008  20632440.14709  20632440.93908
 93 04 16 16 28 00.0000000  0  6 18 14 22 19 28 29
 -15533795.07608 -12104253.53808  21347624.59708  21347626.14308
   3285207.33808   2559897.74108  21126319.12208  21126321.12008
   1784072.90008   1390183.86608  22233970.45708  22233972.48708
 -14322347.17508 -11160265.67308  22264095.10008  22264097.48508
  -2183490.82008  -1701419.21908  24763666.57108  24763671.25208
  -5822484.77209  -4537002.48808  20629270.29109  20629271.01708
 93 04 16 16 30 00.0000000  0  8 18 14 22 19 28 29 27 31
 -15768923.88408 -12287470.77208  21302881.01208  21302882.60008
   3584415.69008   2793046.96008  21183256.71708  21183258.80808
   2062620.42308   1607233.71108  22286976.47108  22286978.35208
 -14556308.46808 -11342573.09908  22219573.71808  22219575.98308
  -2450370.00308  -1909376.75408  24712881.32008  24712885.77208
  -5834189.54409  -4546123.13008  20627042.96609  20627043.70108
        -0.33817         0.03916  25413145.39717  25413149.59216
        -0.93617        -0.07917  25215086.29017  25215092.07217
 93 04 16 16 32 00.0000000  0  8 18 14 22 19 28 29 27 31
 -16001274.67708 -12468523.32008  21258666.22708  21258667.77508
   3890726.05508   3031730.21108  21241545.63708  21241547.79508
   2347991.20608   1829600.39008  22341280.92708  22341282.75408
 -14786496.93808 -11521940.67008  22175770.19108  22175772.45708
  -2715319.35508  -2115830.50508  24662462.69208  24662467.29708
  -5841232.19609  -4551610.93408  20625702.77809  20625703.62408
   -335909.23407   -261747.04007  25349224.14707  25349228.32407
   -314887.95607   -245366.40007  25155165.17407  25155170.94407
 93 04 16 16 34 00.0000000  0  8 18 14 22 19 28 29 27 31
 -16230716.56408 -12647309.17808  21215004.80008  21215006.39308
   4203870.72408   3275738.89008  21301135.21908  21301137.42108
   2639950.49408   2057100.96108  22396839.04608  22396841.04508
 -15013087.02008 -11698504.32008  22132651.52508  22132653.77808
  -2978262.86908  -2320721.27308  24612426.21008  24612430.59208
  -5844250.28909  -4553962.72108  20625128.52409  20625129.29208
   -670485.44007   -522455.65207  25285556.02407  25285560.71307
   -632288.14407   -492690.98507  25094765.51907  25094771.66107
 93 04 16 16 36 00.0000000  0  8 18 14 22 28 29 27 19 31
 -16457332.86908 -12823893.28908  21171881.13808  21171882.69108
   4523671.81508   3524934.38208  21361991.58608  21361993.75308
   2938359.58008   2289627.33008  22453624.47908  22453626.62708
  -3239126.89108  -2523991.74508  24562785.32008  24562789.52308
  -5842489.96709  -4552591.08908  20625463.55709  20625464.34108
  -1003457.74807   -781914.37407  25222193.12807  25222197.76407
 -15236137.00208 -11872309.45008  22090206.47108  22090208.60008
   -951796.39007   -741657.98407  25033965.00807  25033970.74507
 93 04 16 16 38 00.0000000  0  8 18 14 22 28 29 27 19 31
 -16680572.20208 -12997845.99308  21129400.15508  21129401.70308
   4849720.83408   3778998.38708  21424036.75908  21424039.01108
   3243046.10708   2527045.22108  22511604.62708  22511606.64108
  -3497946.69708  -2725669.28908  24513533.32608  24513537.54708
  -5836147.60509  -4547649.03608  20626670.42209  20626671.25208
  -1335121.74107  -1040353.49807  25159079.77207  25159083.80207
 -15455290.34108 -12043078.21208  22048502.89208  22048505.01808
  -1273506.05807   -992340.38907  24972745.45207  24972751.06507
 93 04 16 16 40 00.0000000  0  8 18 14 22 28 27 29 19 31
 -16900354.22208 -13169104.69208  21087576.90208  21087578.56208
   5182364.53008   4038201.10108  21487336.76308  21487339.15108
   3554143.15308   2769458.32608  22570804.56108  22570806.56608
  -3753909.31008  -2925120.42408  24464825.12408  24464829.34708
  -1665120.19807  -1297494.78207  25096282.80007  25096286.90507
  -5824818.55209  -4538821.26108  20628826.32909  20628827.15708
 -15670463.63508 -12210745.65508  22007556.88608  22007559.00708
  -1597203.62307  -1244571.82207  24911147.46307  24911153.05507
 93 04 16 16 42 00.0000000  0  8 18 14 22 28 27 29 19 31
 -17116533.91408 -13337556.38208  21046439.26608  21046440.87608
   5521978.77008   4302835.38908  21551963.38008  21551965.78008
   3871726.38108   3016925.56808  22631238.81008  22631240.82508
  -4006352.73108  -3121829.29108  24416786.22808  24416790.63708
  -1993232.66808  -1553166.43707  25033844.85008  25033848.80207
  -5807953.20909  -4525679.48308  20632035.80709  20632036.69108
 -15881474.78308 -12375169.86508  21967402.69508  21967404.96008
  -1922045.51808  -1497695.05507  24849332.05208  24849337.39807
 93 04 16 16 44 00.0000000  0  8 18 14 22 28 27 29 19 31
 -17329731.17708 -13503684.10508  21005869.26008  21005870.76408
   5867156.57208   4571804.90908  21617648.64208  21617651.11108
   4194898.37608   3268747.69008  22692736.60508  22692738.67908
  -4256098.03508  -3316435.71008  24369261.38708  24369265.65308
  -2320127.45508  -1807889.29407  24971638.37708  24971642.30207
  -5786497.97309  -4508961.16408  20636118.66409  20636119.50908
 -16089082.54608 -12536942.09408  21927896.20208  21927898.48508
  -2248529.03708  -1752097.56007  24787204.06108  24787209.10907
 93 04 16 16 46 00.0000000  0  8 14 22 19 28 27 18 29 31
   6218492.98208   4845573.34108  21684505.90908  21684508.45308
   4524000.52508   3525190.71008  22755362.80708  22755365.05208
 -16292753.17008 -12695646.41808  21889138.91108  21889141.00708
  -4502592.61608  -3508509.01308  24322354.59908  24322358.56608
  -2645065.66508  -2061087.65707  24909804.48608  24909808.40207
 -17539123.79408 -13666847.16608  20966023.09508  20966024.72708
  -5759730.32009  -4488103.30908  20641212.38209  20641213.29208
  -2576272.65008  -2007481.91107  24724836.11208  24724841.52807
 93 04 16 16 48 00.0000000  0  8 14 22 28 27 19 18 29 31
   6575919.81308   5124087.55408  21752522.21008  21752524.72908
   4858906.49608   3786156.18308  22819093.43308  22819095.73108
  -4745462.25308  -3697757.70208  24276137.87808  24276141.58208
  -2968425.10308  -2313055.89707  24848271.29108  24848274.94107
 -16492301.00208 -12851138.18308  21851166.21008  21851168.38908
 -17744381.93908 -13826788.55008  20926963.75508  20926965.40108
  -5727657.97409  -4463111.92008  20647315.60009  20647316.44408
  -2905000.05508  -2263632.68607  24662281.18308  24662286.47707
 93 04 16 16 50 00.0000000  0  8 14 22 28 27 19 18 29 31
   6938380.49108   5406524.24208  21821496.37208  21821498.86308
   5198824.98208   4051027.50308  22883777.88208  22883780.32108
  -4985039.41508  -3884440.91008  24230547.81008  24230551.27708
  -3290752.37608  -2564219.73007  24786934.24208  24786937.83507
 -16688544.75808 -13004055.34308  21813822.27508  21813824.40908
 -17946114.14209 -13983982.44608  20888575.46709  20888576.97808
  -5690795.02809  -4434387.59708  20654330.44009  20654331.33408
  -3235182.14308  -2520916.88907  24599449.18608  24599454.28907
 93 04 16 16 52 00.0000000  0  8 14 22 28 27 19 18 29 31
   7306447.33408   5693329.35808  21891537.31108  21891539.76008
   5543975.25708   4319975.51808  22949458.00508  22949460.53808
  -5220844.42408  -4068184.86008  24185675.33308  24185678.88308
  -3611489.43708  -2814144.33808  24725899.79608  24725903.31508
 -16881252.45108 -13154217.09808  21777151.08008  21777153.22708
 -18143955.89709 -14138144.83008  20850927.44309  20850928.92108
  -5648526.33109  -4401450.99108  20662373.91409  20662374.78908
  -3566095.72308  -2778771.11507  24536478.06208  24536483.04807
 93 04 16 16 54 00.0000000  0  8 14 22 28 27 19 18 29 31
   7680034.12808   5984435.73708  21962628.77008  21962631.26708
   5894428.65008   4593055.82608  23016147.24808  23016149.83008
  -5452370.37908  -4248594.45608  24141617.13108  24141620.60908
  -3930060.57008  -3062381.27108  24665277.38608  24665281.10208
 -17069990.40408 -13301285.57108  21741235.46308  21741237.54008
 -18337995.76209 -14289344.70008  20814002.85709  20814004.34308
  -5600723.03909  -4364201.71808  20671470.57809  20671471.51108
  -3897458.46008  -3036975.48907  24473421.50508  24473426.40407
 93 04 16 16 56 00.0000000  0  8 14 22 28 27 19 18 29 31
   8057971.37308   6278932.06308  22034547.87808  22034550.53208
   6249334.70808   4869605.74708  23083683.71208  23083686.46008
  -5680246.93808  -4426160.44808  24098253.67208  24098257.22208
  -4247645.56208  -3309849.92108  24604842.80708  24604846.55208
 -17255309.96908 -13445690.35208  21705970.27308  21705972.35008
 -18528164.91309 -14437528.42608  20777814.82009  20777816.27108
  -5548030.38909  -4323142.55208  20681497.76109  20681498.63008
  -4229646.25308  -3295822.81808  24410208.12008  24410213.05708
 93 04 16 16 58 00.0000000  0  8 14 22 28 27 19 18 29 31
   8440839.14108   6577270.33208  22107405.28208  22107408.21108
   6609031.92108   5149889.03808  23152132.05408  23152134.85108
  -5904004.70308  -4600517.04208  24055673.51208  24055677.29608
  -4563469.97608  -3555946.74508  24544743.39408  24544746.87008
 -17436989.91008 -13587259.06508  21671397.67208  21671399.73608
 -18713827.01909 -14582200.18108  20742484.54009  20742485.99408
  -5489813.69909  -4277778.94608  20692576.08309  20692576.99308
  -4562029.73608  -3554822.67408  24346957.33108  24346962.29508
 93 04 16 17 00 00.0000000  0  8 14 22 28 27 19 31 18 29
   8828802.13808   6879578.89908  22181232.48708  22181235.26608
   6973398.01608   5433810.40208  23221468.94808  23221471.66408
  -6123023.63008  -4771181.03008  24013995.92008  24013999.38508
  -4877574.19808  -3800703.17808  24484971.31108  24484974.81008
 -17615166.59108 -13726098.00108  21637491.74808  21637493.69508
  -4894301.31108  -3813735.25708  24283727.91908  24283732.72108
 -18895184.23709 -14723517.47708  20707973.31609  20707974.79708
  -5426101.90508  -4228133.43608  20704699.94508  20704700.93108
 93 04 16 17 02 00.0000000  0  8 14 19 22 28 27 31 18 29
   9221656.31808   7185698.76308  22255990.48008  22255993.16808
 -17789470.81008 -13861919.43208  21604322.77108  21604324.74508
   7342217.03908   5721201.57508  23291653.11408  23291655.84708
  -6337095.89008  -4937990.45008  23973259.25408  23973262.65308
  -5189845.60108  -4044031.30308  24425547.78608  24425551.12008
  -5226348.89008  -4072473.14308  24220541.12108  24220545.78608
 -19071875.61909 -14861199.06308  20674350.00309  20674351.55808
  -5356535.05109  -4173925.54808  20717938.20909  20717939.14308
 93 04 16 17 04 00.0000000  0  8 19 14 22 28 27 31 18 29
 -17960038.55708 -13994829.32608  21571864.69008  21571866.76408
   9618829.12208   7495183.77008  22331570.09808  22331572.94108
   7715406.70108   6011998.41908  23362668.86408  23362671.74108
  -6546202.40608  -5100930.43408  23933467.09208  23933470.49808
  -5500576.96708  -4286159.37608  24366417.53608  24366420.77308
  -5558061.27008  -4330949.64707  24157417.72508  24157422.38307
 -19243763.24709 -14995137.44608  20641640.89209  20641642.42808
  -5281155.60909  -4115188.38208  20732282.46409  20732283.39608
 93 04 16 17 06 00.0000000  0  8 19 14 22 28 27 31 18 29
 -18127019.12108 -14124944.01508  21540089.38808  21540091.36208
  10020015.17508   7807795.97908  22407913.32208  22407916.44108
   8092719.18608   6306007.83408  23434469.20108  23434472.28208
  -6750277.70008  -5259949.98808  23894632.80808  23894636.35508
  -5809365.80608  -4526773.85208  24307656.75808  24307659.99508
  -5888844.97508  -4588702.63407  24094471.46608  24094475.84707
 -19410850.36609 -15125335.18108  20609845.34109  20609846.81508
  -5200100.70009  -4052028.79708  20747706.75109  20747707.77408
 93 04 16 17 08 00.0000000  0  8 19 14 22 28 27 18 29 31
 -18290287.88608 -14252166.38508  21509020.34008  21509022.28308
  10425543.73508   8123791.94908  22485083.10308  22485086.33908
   8474007.71808   6603115.45908  23507026.12508  23507029.48908
  -6949064.08508  -5414848.34308  23856805.27608  23856808.44208
  -6116295.97608  -4765940.06108  24249249.71208  24249253.06408
 -19573195.64209 -15251837.98008  20578952.03009  20578953.52208
  -5113239.02209  -3984344.44808  20764236.04409  20764237.06608
  -6218926.11608  -4845908.27407  24031658.62708  24031662.98307
 93 04 16 17 10 00.0000000  0  8 19 14 22 28 27 18 29 31
 -18450584.64508 -14377072.91208  21478516.86508  21478518.81308
  10834256.93808   8442269.44608  22562859.01608  22562862.25108
   8858401.27908   6902642.56808  23580173.94308  23580177.37408
  -7142809.63608  -5565818.79408  23819936.49108  23819939.87608
  -6422248.53708  -5004344.49608  24191028.69008  24191031.89008
 -19731121.56109 -15374897.12908  20548899.75309  20548901.18908
  -5021108.74108  -3912554.70508  20781767.91808  20781768.92908
  -6549033.73608  -5103134.60707  23968840.99608  23968845.22507
 93 04 16 17 12 00.0000000  0  8 19 14 22 28 27 18 29 31
 -18607278.58109 -14499172.04008  21448698.94609  21448700.90608
  11246233.11908   8763289.48908  22641255.78408  22641259.02408
   9246361.71608   7204949.09108  23654000.73808  23654004.08508
  -7331116.00608  -5712550.91508  23784102.95908  23784106.10508
  -6726677.93408  -5241561.95508  24133097.56908  24133100.68408
 -19884032.69809 -15494048.67408  20519801.76209  20519803.16508
  -4923132.75109  -3836209.87708  20800412.25509  20800413.28508
  -6877466.39708  -5359055.84607  23906342.07608  23906346.31607
 93 04 16 17 14 00.0000000  0  8 19 14 22 28 18 29 27 31
 -18760272.34009 -14618387.93008  21419585.19909  21419587.07408
  11662013.72008   9087274.01008  22720376.51208  22720379.67008
   9637873.58508   7510022.96508  23728503.25208  23728506.54708
  -7513740.65908  -5854855.74508  23749350.79908  23749353.63008
 -20031760.96909 -15609161.61308  20491689.98009  20491691.45508
  -4818930.78309  -3755013.62708  20820241.31309  20820242.41208
  -7029469.54008  -5477503.22408  24075477.87208  24075481.08508
  -7204454.97408  -5613851.83007  23844117.94608  23844122.09707
 93 04 16 17 16 00.0000000  0  8 19 14 22 28 18 29 27 31
 -18909956.41009 -14735024.84708  21391101.26109  21391103.30008
  12081330.39308   9414013.90608  22800170.10508  22800173.29708
  10032552.04208   7817564.28008  23803608.42208  23803611.78008
  -7690355.95608  -5992477.94308  23715741.75308  23715744.96508
 -20173958.33509 -15719964.75208  20464630.72709  20464632.20108
  -4708733.44408  -3669145.66208  20841211.19008  20841212.42608
  -7330394.27008  -5711989.79608  24018213.77708  24018216.83108
  -7530137.37608  -5867630.07107  23782142.37008  23782146.49907
 93 04 16 17 18 00.0000000  0  8 19 14 22 28 18 29 27 31
 -19056363.63509 -14849108.38908  21363240.80009  21363242.90708
  12503290.60608   9742813.69408  22880466.65708  22880470.06708
  10430243.12608   8127453.10308  23879286.86808  23879290.22208
  -7860923.77208  -6125387.82908  23683283.67308  23683286.98908
 -20310872.06509 -15826650.77208  20438576.94309  20438578.35508
  -4592740.25108  -3578761.45908  20863284.07608  20863285.19208
  -7629486.41908  -5945048.47308  23961298.32608  23961301.45308
  -7854033.89008  -6120016.70707  23720506.94008  23720510.88107
 93 04 16 17 20 00.0000000  0  8 19 14 22 28 18 29 27 31
 -19199334.27909 -14960514.07308  21336034.44809  21336036.42708
  12928337.09908  10074018.35708  22961350.56108  22961354.17808
  10830907.97108   8439659.10508  23955531.07908  23955534.56508
  -8025062.58208  -6253288.15508  23652049.04308  23652052.01508
 -20442197.40209 -15928982.21308  20413586.61109  20413587.92908
  -4470682.32808  -3483651.50008  20886511.04508  20886512.14008
  -7926846.43408  -6176757.49908  23904712.43708  23904715.57508
  -8175978.39008  -6370882.30707  23659242.63208  23659246.55507
 93 04 16 17 22 00.0000000  0  8 19 14 22 18 29 28 27 31
 -19338693.77409 -15069105.86708  21309515.26309  21309517.12508
  13356214.75108  10407429.11308  23042773.20208  23042777.05808
  11234380.27008   8754052.74708  24032309.53708  24032313.14108
 -20567882.35209 -16026918.54208  20389669.49709  20389670.83908
  -4342196.81908  -3383533.03508  20910961.01208  20910962.28208
  -8182671.73808  -6376100.47208  23622056.93108  23622060.15008
  -8222380.33708  -6407043.58908  23848474.22008  23848477.25808
  -8495466.45808  -6619833.78707  23598445.91308  23598449.88307
 93 04 16 17 24 00.0000000  0  8 19 14 22 18 29 28 27 31
 -19474498.66009 -15174927.83108  21283672.40109  21283674.37508
  13786654.94308  10742836.63608  23124683.57308  23124687.43808
  11640513.52208   9070519.84908  24109594.37208  24109598.04108
 -20687677.91809 -16120265.74808  20366873.22709  20366874.61808
  -4207718.30608  -3278744.68508  20936551.60808  20936552.73208
  -8333541.97808  -6493661.68608  23593347.36908  23593350.57808
  -8516220.96308  -6636010.22008  23792558.18308  23792561.23908
  -8812456.14908  -6866838.51007  23538124.57608  23538128.62807
 93 04 16 17 26 00.0000000  0  8 19 18 29 14 22 28 27 31
 -19607430.30809 -15278510.92608  21258376.37309  21258378.37508
 -20801986.37009 -16209337.27908  20345120.95409  20345122.42608
  -4067484.70308  -3169471.86008  20963237.28508  20963238.38308
  14219250.55008  11079923.69808  23207004.24808  23207008.16508
  12048754.26508   9388629.13408  24187280.26708  24187284.17908
  -8478272.55808  -6606438.76308  23565806.15008  23565809.40508
  -8808709.82708  -6863923.46108  23736899.22208  23736902.35108
  -9127079.81108  -7111999.59207  23478253.64908  23478257.40207
 93 04 16 17 28 00.0000000  0  8 29 19 14 18 22 28 27 31
  -3921440.54008  -3055671.33108  20991028.56008  20991029.85208
 -19737359.65709 -15379754.58608  21233651.58309  21233653.51008
  14653355.68008  11418186.99708  23289612.12808  23289616.01008
 -20910725.10409 -16294068.76908  20324428.73609  20324430.16908
  12458719.86708   9708082.44908  24265294.46308  24265298.49408
  -8616903.07808  -6714462.49008  23539425.70908  23539428.70208
  -9099982.32708  -7090888.88308  23681471.86908  23681474.94608
  -9439680.49708  -7355584.32907  23418767.71508  23418771.12707
 93 04 16 17 30 00.0000000  0  8 29 19 18 14 22 28 27 31
  -3769348.22208  -2937157.96208  21019970.96708  21019972.21208
 -19864061.24109 -15478483.09308  21209541.13509  21209542.99308
 -21013273.67609 -16373976.77408  20304914.49509  20304915.89208
  15089378.86208  11757944.85808  23372584.87408  23372588.86708
  12870776.66708  10029165.27808  24343706.59308  24343710.68408
  -8748493.54708  -6817000.40408  23514384.54508  23514387.84908
  -9389496.54308  -7316484.23808  23626379.07608  23626381.82808
  -9749370.68108  -7596901.12307  23359835.33908  23359838.96807
 93 04 16 17 32 00.0000000  0  8 29 19 14 18 22 28 27 31
  -3611074.83308  -2813828.18208  21050089.38108  21050090.73908
 -19987498.87309 -15574668.26508  21186051.77809  21186053.62308
  15527388.26508  12099250.39708  23455935.59208  23455939.79408
 -21109886.17609 -16449259.26708  20286529.69109  20286531.10108
  13284788.32708  10351771.34308  24422490.70408  24422494.85408
  -8872936.17508  -6913968.51908  23490704.04908  23490707.24208
  -9677417.68108  -7540838.22808  23571589.30908  23571592.13908
 -10055657.03008  -7835565.55708  23301550.81508  23301554.38008
 93 04 16 17 34 00.0000000  0  8 29 19 14 18 22 28 27 31
  -3446686.66608  -2685733.63908  21081371.47408  21081372.84108
 -20107657.19209 -15668298.14008  21163186.34909  21163188.29908
  15966634.70808  12441519.84208  23539521.80108  23539526.20108
 -21200590.62909 -16519938.09408  20269269.17709  20269270.67508
  13700342.24108  10675579.17008  24501568.33108  24501572.52508
  -8990157.61508  -7005309.79808  23468397.25108  23468400.38508
  -9963912.33108  -7764080.70508  23517071.10508  23517074.04608
 -10358895.47708  -8071855.05108  23243846.38908  23243849.88508
 93 04 16 17 36 00.0000000  0  8 29 19 14 18 22 28 27 31
  -3275769.85808  -2552551.85508  21113896.00008  21113897.38608
 -20224274.81109 -15759169.02908  21140994.73209  21140996.77008
  16407692.95408  12785201.04108  23623452.77808  23623457.38208
 -21284301.38909 -16585167.29508  20253339.51609  20253341.08308
  14117976.10008  11001007.71107  24581041.62908  24581045.92907
  -9099807.93708  -7090751.54608  23447531.22508  23447534.58008
 -10248059.99608  -7985494.37808  23462999.47608  23463002.52108
 -10658109.81208  -8305008.90208  23186907.59408  23186910.93808
 93 04 16 17 38 00.0000000  0  8 29 19 14 18 22 28 27 31
  -3098450.59208  -2414381.14108  21147638.92808  21147640.29108
 -20337727.66709 -15847573.90308  21119405.38809  21119407.46108
  16850135.29508  13129960.71908  23707647.09508  23707651.88108
 -21361487.08809 -16645312.03608  20238651.74509  20238653.22108
  14537067.76808  11327572.22007  24660792.44508  24660796.86707
  -9201952.92808  -7170345.01308  23428093.81008  23428096.79508
 -10530516.92908  -8205590.57308  23409249.88808  23409252.54308
 -10953366.68208  -8535079.06508  23130722.13808  23130725.27508
 93 04 16 17 40 00.0000000  0  8 29 19 14 18 22 28 27 31
  -2914967.95408  -2271407.80308  21182554.63608  21182556.00808
 -20448078.33409 -15933561.45608  21098406.48709  21098408.51808
  17293315.08108  13475294.98408  23791981.92608  23791986.78108
 -21432389.41909 -16700560.63508  20225159.43609  20225160.88508
  14957319.33108  11655040.53007  24740764.13508  24740768.66407
  -9296635.39608  -7244123.51608  23410076.31808  23410079.41108
 -10811682.03908  -8424680.16308  23355745.80208  23355748.49408
 -11244880.39208  -8762232.47008  23075248.79708  23075252.11908
 93 04 16 17 42 00.0000000  0  8 29 19 14 18 22 28 27 31
  -2725235.56308  -2123564.53408  21218659.63008  21218660.99808
 -20555425.91509 -16017208.93508  21077978.85509  21077980.86808
  17737245.07008  13821213.79808  23876459.66608  23876464.52308
 -21496680.43909 -16750657.56408  20212925.28809  20212926.82808
  15378712.00808  11983398.02508  24820952.87208  24820957.56508
  -9383623.91108  -7311906.75508  23393523.10108  23393526.00508
 -11091138.86708  -8642438.65108  23302566.87708  23302569.53808
 -11531984.35308  -8985949.73008  23020614.54808  23020617.85708
 93 04 16 17 44 00.0000000  0  8 29 19 14 18 22 28 27 31
  -2529758.51308  -1971244.93208  21255857.78708  21255859.27908
 -20659831.08109 -16098563.59708  21058111.22809  21058113.33008
  18181704.69308  14167545.27008  23961038.01008  23961043.09808
 -21554286.24309 -16795545.24208  20201963.33209  20201964.82208
  15800956.71508  12312419.43608  24901303.81308  24901308.58308
  -9462987.90108  -7373748.79108  23378420.46308  23378423.59908
 -11369043.99408  -8858988.01608  23249683.33508  23249685.91708
 -11815017.09908  -9206494.60308  22966755.18308  22966758.39608
 93 04 16 17 46 00.0000000  0  8 29 19 14 22 18 28 27 31
  -2328233.34908  -1814212.52008  21294207.04608  21294208.59108
 -20761343.04709 -16177663.85008  21038794.18409  21038796.16408
  18626557.12608  14514182.80208  24045691.33908  24045696.37408
  16223899.76508  12641985.06407  24981787.46808  24981792.24907
 -21605155.07209 -16835183.33208  20192283.34209  20192284.79308
  -9534680.78008  -7429613.32908  23364777.72708  23364780.68108
 -11645303.11908  -9074254.78308  23197112.77508  23197115.51208
 -12093661.54808  -9423619.98408  22913730.73408  22913734.05608
 93 04 16 17 48 00.0000000  0  8 29 19 14 18 22 28 27 31
  -2120661.51608  -1652468.41708  21333706.76308  21333708.38808
 -20859858.15709 -16254428.90208  21020047.44309  21020049.40308
  19071324.50208  14860754.02508  24130328.34808  24130333.65808
 -21649533.13709 -16869763.69408  20183838.49109  20183840.02808
  16647261.70108  12971877.12907  25062350.74908  25062355.64807
  -9598695.84608  -7479495.17008  23352596.04508  23352599.02008
 -11920155.20908  -9288425.14608  23144810.10408  23144812.84708
 -12367550.71908  -9637039.93308  22861611.18108  22861614.52608
 93 04 16 17 50 00.0000000  0  8 29 19 14 18 22 28 27 31
  -1906492.61008  -1485583.74108  21374461.85008  21374463.59008
 -20954900.12109 -16328487.59208  21001961.50909  21001963.54708
  19516550.12608  15207682.30708  24215052.53408  24215057.97308
 -21686513.95009 -16898579.95508  20176801.36609  20176802.87608
  17071602.02208  13302531.61607  25143100.34308  25143105.20307
  -9654259.01808  -7522791.14508  23342023.03908  23342025.89308
 -12193142.87608  -9501142.75608  23092862.20108  23092864.85908
 -12636240.91408  -9846408.70208  22810480.98008  22810484.21408
 93 04 16 17 52 00.0000000  0  8 29 14 22 18 28 27 19 31
  -1686462.42808  -1314131.83908  21416332.30008  21416334.04308
  19961404.00208  15554320.86308  24299705.82008  24299711.72208
  17496071.14307  13633286.48507  25223874.27707  25223879.26507
 -21716860.05709 -16922226.31808  20171026.74109  20171028.26208
  -9702134.94808  -7560097.06508  23332912.56508  23332915.62908
 -12465068.88508  -9713033.11108  23041116.42408  23041119.03408
 -21047448.20909 -16400603.02008  20984350.29609  20984352.36908
 -12899986.54308 -10051924.55908  22760291.68308  22760294.92708
 93 04 16 17 54 00.0000000  0  8 29 14 22 18 28 27 19 31
  -1460686.17208  -1138202.48108  21459296.20708  21459298.01308
  20405577.29708  15900429.03808  24384229.75508  24384235.84908
  17920398.93307  13963931.33707  25304621.38407  25304626.42007
 -21740589.43209 -16940716.78908  20166511.19809  20166512.70808
  -9742073.10508  -7591217.69708  23325312.47808  23325315.37808
 -12735640.93008  -9923868.43108  22989628.19608  22989630.77708
 -21137173.67209 -16470519.00508  20967276.17409  20967278.15808
 -13158715.54808 -10253531.39508  22711057.24308  22711060.25208
 93 04 16 17 56 00.0000000  0  8 29 14 22 18 28 27 19 31
  -1228397.29808   -957198.36008  21503499.47608  21503501.38108
  20849631.55508  16246444.46807  24468731.33608  24468737.37207
  18345149.54707  14294905.68007  25385448.84707  25385453.88607
 -21756704.46109 -16953274.01208  20163444.68809  20163446.22608
  -9773497.44708  -7615704.20808  23319332.53908  23319335.56008
 -13004132.09408 -10133082.28608  22938535.98908  22938538.59108
 -21223879.79309 -16538082.23208  20950776.49109  20950778.55208
 -13411713.01608 -10450672.10508  22662913.00508  22662916.28708
 93 04 16 17 58 00.0000000  0  8 29 28 14 18 22 27 19 31
   -989951.09908   -771396.29308  21548874.43308  21548876.19508
  -9796427.70608  -7633571.92408  23314969.01808  23314972.01408
  21293305.59908  16592163.65107  24553160.38508  24553166.62107
 -21765027.36109 -16959759.43108  20161860.99009  20161862.49708
  18770169.44307  14626089.87707  25466327.41507  25466332.71107
 -13270728.35408 -10340819.57508  22887804.53008  22887807.05708
 -21307427.91609 -16603184.66608  20934877.83609  20934879.94508
 -13658734.08908 -10643155.90108  22615906.59108  22615909.54708
 93 04 16 18 00 00.0000000  0  7 29 28 14 27 18 19 31
   -745775.05908   -581129.43908  21595339.76808  21595341.47108
  -9811138.37108  -7645034.78308  23312169.81908  23312172.81308
  21736087.70208  16937187.84107  24637419.74608  24637426.20007
 -13535863.77508 -10547418.56608  22837350.77008  22837353.37108
 -21766279.94709 -16960735.53008  20161622.61009  20161624.15908
 -21388152.66709 -16666087.10408  20919516.55209  20919518.52408
 -13899963.88508 -10831127.04608  22570002.04908  22570004.99808
 93 04 16 18 02 00.0000000  0  8 29 28 14 18 11 27 19 31
   -496113.02708   -386587.79208  21642849.03908  21642850.87708
  -9817925.76208  -7650323.65908  23310877.94008  23310881.05908
  22177188.15408  17280901.64707  24721358.91608  24721365.76307
 -21761082.17409 -16956685.37108  20162611.75509  20162613.34208
        -0.10618        -0.05617  24645898.83918  24645905.51817
 -13800023.38208 -10753257.18008  22787083.01808  22787085.39608
 -21466469.79809 -16727113.46408  20904613.23709  20904615.24108
 -14135775.81608 -11014876.47208  22525128.19408  22525131.20108
 93 04 16 18 04 00.0000000  0  8 29 28 14 11 18 27 19 31
   -240395.59708   -187327.66608  21691510.65908  21691512.45808
  -9816170.28108  -7648955.74508  23311212.31008  23311215.30208
  22617161.49808  17623737.16307  24805083.72308  24805090.82907
   -327375.89608   -255097.99307  24583601.25308  24583607.84507
 -21748270.53609 -16946702.33008  20165049.81309  20165051.36808
 -14062632.19408 -10957887.36508  22737109.97208  22737112.61108
 -21541904.00109 -16785893.36708  20890258.57109  20890260.73108
 -14365149.73208 -11193609.26208  22481479.84908  22481482.78608
 93 04 16 18 06 00.0000000  0  8 29 14 11 18 28 27 19 31
     21607.37108     16830.26408  21741368.36108  21741370.33308
  23056438.58708  17966030.12807  24888676.01008  24888683.31207
   -652003.09208   -508054.10607  24521826.75308  24521833.17507
 -21727408.90209 -16930446.56508  20169019.70709  20169021.25608
  -9805535.19908  -7640668.67408  23313236.06608  23313239.11908
 -14323138.65608 -11160879.36408  22687537.39808  22687539.88108
 -21614096.18209 -16842147.02108  20876520.92809  20876523.02408
 -14587637.54208 -11366976.25808  22439141.82608  22439144.59108
 93 04 16 18 08 00.0000000  0  8 29 14 18 11 28 27 19 31
    289940.80108    225921.01108  21792430.66708  21792432.66808
  23494565.90707  18307427.06707  24972049.54507  24972057.09407
 -21698705.46509 -16908080.30208  20174481.78609  20174483.37908
   -973795.89908   -758801.50607  24460591.16408  24460597.73707
  -9785815.54408  -7625302.73208  23316988.58808  23316991.59108
 -14581406.89608 -11362127.29208  22638390.45708  22638392.93108
 -21683021.74109 -16895855.26108  20863404.80609  20863406.91808
 -14803102.92708 -11534871.25808  22398140.05208  22398142.88708
 93 04 16 18 10 00.0000000  0  8 29 14 18 11 28 27 19 31
    564735.74608    440046.68508  21844722.51908  21844724.61008
  23931558.00407  18647939.34307  25055207.09407  25055214.88007
 -21661909.38309 -16879408.09108  20181483.95309  20181485.54308
  -1292340.44908  -1007017.67408  24399974.15208  24399980.40008
  -9757145.07508  -7602962.12708  23322444.24408  23322447.15008
 -14837477.97708 -11561663.14308  22589661.69708  22589664.29608
 -21748292.27609 -16946715.41008  20850984.28509  20850986.39808
 -15011171.24008 -11697002.32508  22358546.00108  22358548.82508
 93 04 16 18 12 00.0000000  0  8 29 14 18 11 28 27 19 31
    845075.20508    658492.74208  21898069.60708  21898071.72908
  24366403.51707  18986778.80707  25137956.42207  25137964.32107
 -21617325.72309 -16844667.63508  20189967.98409  20189969.63508
  -1608256.22008  -1253185.46708  24339857.23908  24339863.40808
  -9720026.17708  -7574038.34908  23329507.75908  23329510.66608
 -15092454.02208 -11760345.68708  22541141.26808  22541143.79108
 -21811202.06109 -16995736.03308  20839012.91709  20839015.02008
 -15212298.17108 -11853724.49408  22320272.52108  22320275.36308
 93 04 16 18 14 00.0000000  0  8 29 14 18 11 28 27 19 31
   1130754.38308    881099.61808  21952432.74908  21952434.97808
  24799160.58107  19323990.73707  25220308.36507  25220316.74807
 -21565435.91509 -16804234.08608  20199842.33209  20199843.97208
  -1921513.61908  -1497281.73308  24280245.84008  24280251.97308
  -9674532.43308  -7538588.71908  23338165.06408  23338168.11208
 -15346481.28408 -11958288.94408  22492801.51908  22492803.92408
 -21871510.11309 -17042729.33308  20827536.73209  20827538.79208
 -15406737.54208 -12005235.55808  22283271.92708  22283274.64108
 93 04 16 18 16 00.0000000  0  8 29 14 18 11 28 27 19 31
   1421966.40708   1108017.78608  22007848.69608  22007851.11808
  25229805.76907  19659556.90007  25302258.43307  25302267.30007
 -21505944.99109 -16757877.59908  20211163.12809  20211164.78208
  -2231396.14308  -1738748.18208  24221276.94308  24221282.86708
  -9620572.91408  -7496542.40608  23348433.28108  23348436.30508
 -15598290.84008 -12154504.11808  22444883.71608  22444886.23508
 -21928990.47909 -17087519.24408  20816598.59709  20816600.61808
 -15593869.28408 -12151052.38008  22247661.85108  22247664.53108
 93 04 16 18 18 00.0000000  0  7 29 11 18 28 27 19 31
   1719101.91908   1339551.65508  22064391.99808  22064394.50408
  -2537551.58008  -1977310.42108  24163017.14908  24163022.90508
 -21438777.32709 -16705539.23408  20223944.82209  20223946.47408
  -9557721.13408  -7447567.05508  23360393.72008  23360396.65608
 -15848375.20208 -12349374.98008  22397294.18508  22397296.66008
 -21983653.65609 -17130113.93608  20806196.49309  20806198.63108
 -15773498.13808 -12291022.78708  22213479.39408  22213482.15108
 93 04 16 18 20 00.0000000  0  8 29 02 18 11 28 27 19 31
   2021436.62008   1575136.81708  22121924.57808  22121927.14108
        -0.84018        -0.34818  24082466.60718  24082471.27018
 -21364021.00209 -16647287.63308  20238170.58609  20238172.17308
  -2840191.17108  -2213133.12108  24105426.44808  24105432.28608
  -9486228.59908  -7391858.66108  23373998.19608  23374001.46808
 -16097322.39208 -12543359.75308  22349921.17308  22349923.52008
 -22035747.81909 -17170706.81008  20796283.32509  20796285.52608
 -15945489.52708 -12425041.94108  22180750.43908  22180753.21808
 93 04 16 18 22 00.0000000  0  8 29 02 18 11 28 27 19 31
   2329380.31108   1815092.62208  22180524.51608  22180527.15008
   -361983.55408   -282064.61908  24013583.71708  24013588.15908
 -21281474.69109 -16582965.91908  20253878.67909  20253880.30108
  -3138913.79608  -2445903.73608  24048581.15408  24048586.92608
  -9406161.61908  -7329468.87508  23389234.53308  23389237.86208
 -16344442.19408 -12735920.56608  22302895.71508  22302898.09608
 -22084924.05809 -17209025.96108  20786925.38009  20786927.60108
 -16109714.01808 -12553008.97608  22149499.57308  22149502.30808
 93 04 16 18 24 00.0000000  0  8 29 02 11 18 28 27 19 31
   2641888.77608   2058605.39108  22239993.28308  22239995.92208
   -721395.22008   -562125.52208  23945190.14708  23945194.21208
  -3433997.97108  -2675839.29908  23992428.40708  23992434.16508
 -21191422.20209 -16512795.24008  20271015.11009  20271016.81608
  -9318100.37208  -7260849.78708  23405992.08008  23405995.29408
 -16590330.96508 -12927522.13508  22256104.52208  22256106.97008
 -22131978.48109 -17245691.76508  20777971.24209  20777973.39508
 -16266675.96708 -12675316.90308  22119630.73208  22119633.29908
 93 04 16 18 26 00.0000000  0  8 29 02 11 18 28 27 19 31
   2960307.17608   2306723.28308  22300586.56508  22300589.15708
  -1077302.75508   -839455.99308  23877463.02008  23877467.27708
  -3724163.19508  -2901941.83208  23937211.52008  23937217.32108
 -21093058.82109 -16436148.54008  20289733.11409  20289734.82308
  -9221255.61608  -7185386.40908  23424421.14208  23424424.09708
 -16834094.61708 -13117467.76008  22209717.80308  22209720.17208
 -22175851.04409 -17279878.18408  20769622.57909  20769624.75508
 -16415451.26608 -12791245.64108  22091319.66008  22091322.17808
 93 04 16 18 28 00.0000000  0  8 29 02 11 18 28 27 19 31
   3284179.55108   2559091.00908  22362217.56308  22362220.28608
  -1429925.08508  -1114226.57008  23810361.19208  23810365.46208
  -4009577.90108  -3124342.59008  23882898.68808  23882904.38508
 -20986757.43509 -16353316.37908  20309961.73109  20309963.41408
  -9115449.36308  -7102940.01308  23444555.36608  23444558.46708
 -17076115.71508 -13306055.53608  22163662.66208  22163664.98408
 -22216508.71809 -17311559.50608  20761885.65909  20761887.91508
 -16555684.31008 -12900518.06808  22064634.01208  22064636.73108
 93 04 16 18 30 00.0000000  0  8 29 02 11 18 28 27 19 31
   3613459.02608   2815672.04908  22424877.75208  22424880.57708
  -1779110.17208  -1386318.73108  23743913.39308  23743917.71208
  -4289996.01708  -3342849.89108  23829536.58808  23829542.16408
 -20872571.04109 -16264340.06108  20331690.75709  20331692.50508
  -9000780.43708  -7013587.66008  23466376.35908  23466379.43708
 -17316339.59008 -13493242.89008  22117949.52108  22117951.86408
 -22254205.23409 -17340933.44708  20754712.27909  20754714.52708
 -16687252.07908 -13003038.33408  22039597.58508  22039600.25908
 93 04 16 18 32 00.0000000  0  8 29 02 11 28 18 27 19 31
   3947540.80708   3075995.14208  22488451.69908  22488454.67408
  -2125036.72108  -1655871.72308  23678085.60908  23678090.03808
  -4565474.55708  -3557508.19608  23777114.72708  23777120.15308
  -8877883.99808  -6917824.21308  23489762.83408  23489765.96508
 -20750654.60309 -16169340.34008  20354890.79309  20354892.56408
 -17554898.37008 -13679132.77208  22072553.21508  22072555.57108
 -22289270.38909 -17368256.97208  20748039.68509  20748041.90408
 -16810566.60108 -13099127.50308  22016131.48408  22016134.12708
 93 04 16 18 34 00.0000000  0  8 29 02 11 28 18 27 19 31
   4286202.61308   3339887.05008  22552897.17408  22552900.21408
  -2467815.97708  -1922972.25508  23612856.62408  23612861.06108
  -4835955.13108  -3768271.96708  23725643.72508  23725649.08008
  -8746663.85908  -6815574.77508  23514733.04008  23514736.28108
 -20621066.94109 -16068363.04708  20379550.54609  20379552.40008
 -17791775.78408 -13863712.51308  22027476.90608  22027479.23108
 -22321656.13509 -17393492.65308  20741876.89309  20741879.17608
 -16925627.39708 -13188785.19708  21994236.16808  21994238.76008
 93 04 16 18 36 00.0000000  0  8 29 02 11 28 18 27 19 31
   4630119.02908   3607873.44708  22618342.54908  22618345.63008
  -2807364.59408  -2187555.41008  23548242.59508  23548246.93008
  -5101183.65308  -3974943.29708  23675172.18308  23675177.47608
  -8607521.72408  -6707152.40608  23541210.98008  23541214.20008
 -20483532.10509 -15961193.15308  20405722.61409  20405724.47408
 -18027672.76408 -14047528.28608  21982587.22808  21982589.53108
 -22351408.16709 -17416676.08608  20736215.36809  20736217.51508
 -17032343.31908 -13271940.41708  21973928.83808  21973931.28708
 93 04 16 18 38 00.0000000  0  8 29 02 11 28 18 27 19 31
   4978133.25908   3879052.92308  22684567.66208  22684571.09208
  -3143779.96708  -2449697.11208  23484224.87708  23484228.97308
  -5361118.13308  -4177489.40508  23625708.19508  23625713.50708
  -8460278.47808  -6592417.55508  23569230.40708  23569233.77708
 -20338560.17209 -15848228.13308  20433309.95009  20433311.82508
 -18261849.35508 -14230003.47408  21938024.81608  21938027.19608
 -22378954.53909 -17438140.82308  20730973.41309  20730975.69608
 -17130596.00008 -13348500.89908  21955231.88308  21955234.34408
 93 04 16 18 40 00.0000000  0  8 29 02 11 28 27 18 19 31
   5331112.06808   4154100.87408  22751737.85208  22751741.24508
  -3476535.11608  -2708986.72408  23420903.54808  23420907.61708
  -5615010.09108  -4375327.08108  23577393.98808  23577399.23108
  -8304395.54008  -6470950.49108  23598894.07908  23598897.31008
 -18494040.58008 -14410931.60008  21893840.20908  21893842.44408
 -20185836.17909 -15729222.54808  20462372.46409  20462374.38808
 -22403753.21409 -17457464.48908  20726254.44109  20726256.71408
 -17219710.14908 -13417940.43808  21938274.14608  21938276.41808
 93 04 16 18 42 00.0000000  0  8 29 02 11 28 27 18 19 31
   5688719.58808   4432755.61708  22819788.68608  22819792.20308
  -3805602.30908  -2965402.63308  23358283.99908  23358288.06508
  -5862789.27708  -4568401.46308  23530243.02908  23530248.12008
  -8140371.79908  -6343139.92208  23630107.11808  23630110.12708
 -18724453.26108 -14590473.86308  21849994.10108  21849996.35908
 -20025270.41909 -15604106.50008  20492927.23009  20492929.24008
 -22425256.78609 -17474220.54408  20722162.47509  20722164.71708
 -17299966.56208 -13480477.85408  21923001.68408  21923004.17608
 93 04 16 18 44 00.0000000  0  8 29 02 11 28 27 31 18 19
   6050458.25808   4714629.41708  22888625.65908  22888629.34708
  -4131015.38208  -3218971.18508  23296359.74708  23296363.96608
  -6104315.41308  -4756603.32208  23484281.73408  23484286.99008
  -7968119.05908  -6208917.13208  23662885.79508  23662888.91108
 -18953013.43008 -14768572.61908  21806500.38108  21806502.72608
 -17371310.87308 -13536070.77608  21909425.28908  21909427.79708
 -19856972.26809 -15472965.20608  20524953.33209  20524955.41408
 -22443828.27509 -17488691.87608  20718628.44209  20718630.71808
 93 04 16 18 46 00.0000000  0  8 29 02 11 28 27 31 18 19
   6417040.31008   5000277.26108  22958384.16908  22958388.07008
  -4452565.84108  -3469529.90808  23235170.80208  23235174.92508
  -6339338.08508  -4939737.54508  23439558.21508  23439563.10208
  -7787550.55608  -6068214.51908  23697246.74608  23697250.23808
 -19179980.27508 -14945429.84808  21763309.99708  21763312.30408
 -17433551.55508 -13584569.94808  21897581.22008  21897583.66908
 -19680824.96809 -15335707.68808  20558473.12609  20558475.16408
 -22459851.85509 -17501177.82908  20715579.32109  20715581.67208
 93 04 16 18 48 00.0000000  0  8 27 29 02 11 28 31 18 19
 -19404989.04808 -15120761.30908  21720492.28608  21720494.60508
   6787812.65008   5289190.24308  23028940.34908  23028944.22908
  -4770398.23508  -3717191.40008  23174689.25108  23174693.21608
  -6567834.84708  -5117786.67808  23396076.49508  23396081.38208
  -7598864.69308  -5921186.70408  23733152.64108  23733156.09708
 -17486579.20408 -13625890.12208  21887490.30608  21887492.84008
 -19497191.73209 -15192616.98808  20593417.48509  20593419.60308
 -22473295.86709 -17511653.72708  20713021.04209  20713023.30908
 93 04 16 18 50 00.0000000  0  8 27 29 02 11 28 31 18 19
 -19627487.09008 -15294136.35008  21678152.22908  21678154.57208
   7163046.68008   5581579.83208  23100345.44408  23100349.45908
  -5084007.24408  -3961561.91108  23115011.28508  23115015.28808
  -6789027.90808  -5290144.63108  23353984.66608  23353989.55408
  -7402072.51908  -5767842.25908  23770600.95708  23770604.49608
 -17529561.10708 -13659382.42008  21879311.22908  21879313.60608
 -19305493.34109 -15043241.76808  20629896.55509  20629898.81108
 -22483122.13009 -17519310.59708  20711151.16109  20711153.44208
 93 04 16 18 52 00.0000000  0  8 27 29 02 11 28 31 18 19
 -19848244.95808 -15466155.41708  21636143.42208  21636145.66608
   7542310.07708   5877109.15408  23172517.31208  23172521.43408
  -5393756.75308  -4202925.00508  23056067.85808  23056071.78008
  -7003276.76808  -5457091.53908  23313214.34608  23313219.08108
  -7197837.37008  -5608698.09908  23809465.77408  23809469.26308
 -17563181.45308 -13685579.98108  21872913.26008  21872915.73008
 -19106203.44209 -14887951.10008  20667820.35309  20667822.54108
 -22489881.09909 -17524577.37108  20709865.09609  20709867.35508
 93 04 16 18 54 00.0000000  0  8 29 02 11 28 27 31 18 19
   7925571.70808   6175753.95908  23245450.03908  23245454.28708
  -5699628.38708  -4441266.36208  22997862.36208  22997866.27308
  -7210466.90208  -5618538.17108  23273787.19408  23273791.87708
  -6985758.60808  -5443442.04908  23849823.20708  23849826.67108
 -20066902.87708 -15636538.16108  21594534.17108  21594536.31908
 -17587805.47208 -13704767.43708  21868227.33908  21868229.81708
 -18899426.37609 -14726826.28408  20707168.91109  20707170.96608
 -22494150.01109 -17527903.83908  20709052.79409  20709055.11708
 93 04 16 18 56 00.0000000  0  8 29 02 11 28 27 31 18 19
   8312503.53108   6477258.65808  23319081.07808  23319085.68108
  -6001679.85508  -4676630.95008  22940383.64808  22940387.60508
  -7410439.93108  -5774361.11708  23235733.35208  23235738.12808
  -6765956.88408  -5272168.16508  23891650.21608  23891653.77408
 -20283943.32408 -15805660.53708  21553232.77508  21553234.86108
 -17603147.58608 -13716722.26508  21865307.85908  21865310.30008
 -18685379.25609 -14560036.50208  20747900.84209  20747902.92708
 -22495698.69909 -17529110.65308  20708758.19009  20708760.48508
 93 04 16 18 58 00.0000000  0  8 29 02 11 28 27 31 18 19
   8703012.91808   6781551.04808  23393392.94108  23393397.69208
  -6299926.37908  -4909030.64208  22883628.96008  22883632.80408
  -7603146.06608  -5924521.55208  23199062.44308  23199067.24508
  -6539254.68508  -5095517.28308  23934790.32008  23934793.85708
 -20499285.53508 -15973459.61308  21512254.43808  21512256.60908
 -17609420.78608 -13721610.44308  21864114.11308  21864116.45208
 -18464124.20809 -14387630.14808  20790004.48809  20790006.76308
 -22494323.57809 -17528039.16208  20709019.81509  20709022.15308
 93 04 16 19 00 00.0000000  0  8 29 02 11 28 27 31 18 19
   9097541.49808   7088975.24908  23468469.87208  23468474.61008
  -6593645.00308  -5137902.11608  22827736.14808  22827739.87908
  -7787786.33208  -6068396.82908  23163926.40308  23163931.03108
  -6304469.29008  -4912567.82008  23979468.73908  23979472.33608
 -20712246.21408 -16139402.97408  21471729.39408  21471731.56608
 -17606124.19808 -13719041.66608  21864741.42408  21864743.91608
 -18235061.23209 -14209139.69308  20833593.77309  20833596.08208
 -22489619.23909 -17524373.48508  20709915.06509  20709917.38308
 93 04 16 19 02 00.0000000  0  8 29 02 11 28 27 31 18 19
   9495704.48008   7399231.39108  23544238.60808  23544243.32008
  -6882852.61108  -5363258.52108  22772701.68608  22772705.38408
  -7964043.18608  -6205739.51108  23130385.67208  23130390.11208
  -6061933.98708  -4723579.51108  24025621.61508  24025625.43108
 -20922444.91308 -16303194.13308  21431729.81008  21431732.09408
 -17592461.25708 -13708395.22508  21867341.46308  21867343.77908
 -17998144.08509 -14024529.11108  20878677.79609  20878680.12708
 -22481378.38109 -17517952.06108  20711483.31409  20711485.57908
 93 04 16 19 04 00.0000000  0  8 29 02 11 28 27 31 18 19
   9897410.83508   7712248.58508  23620681.37708  23620686.26108
  -7167881.20208  -5585358.55908  22718462.48208  22718466.17008
  -8132406.75408  -6336931.60208  23098346.87208  23098351.40608
  -5812420.05008  -4529153.34308  24073102.75108  24073106.56108
 -21130526.78808 -16465335.82708  21392133.20908  21392135.31508
 -17569056.89808 -13690158.06608  21871795.04108  21871797.40908
 -17754079.44508 -13834349.05908  20925121.84608  20925124.32208
 -22470137.38509 -17509192.86208  20713622.41009  20713624.76608
 93 04 16 19 06 00.0000000  0  8 18 29 02 11 28 27 19 31
 -17503239.53708 -13638889.58208  20972855.22008  20972857.72608
  10302010.79808   8027520.51908  23697674.52908  23697679.81508
  -7449061.35208  -5804459.79008  22664955.52908  22664959.19208
  -8292950.12108  -6462030.08308  23067796.40108  23067800.85808
  -5556073.28908  -4329402.94808  24121884.32608  24121888.22408
 -21336929.28108 -16626168.90908  21352856.07708  21352858.19808
 -22456292.22009 -17498404.44808  20716257.07309  20716259.42408
 -17536818.03108 -13665036.88408  21877930.05908  21877932.48808
 93 04 16 19 08 00.0000000  0  8 18 29 02 11 28 27 19 31
 -17245419.11808 -13437990.74008  21021916.95908  21021919.56708
  10709889.27508   8345347.10008  23775291.68308  23775297.25508
  -7725625.81108  -6019964.35408  22612326.86408  22612330.40508
  -8445074.71008  -6580568.56908  23038848.02308  23038852.25608
  -5292504.24808  -4124024.81408  24172040.23308  24172044.17008
 -21540751.99008 -16784991.77008  21314069.87408  21314072.04308
 -22439282.55509 -17485150.20308  20719493.98109  20719496.27008
 -17494898.55608 -13632372.36408  21885907.10008  21885909.63708
 93 04 16 19 10 00.0000000  0  8 18 29 02 11 28 27 19 31
 -16980636.55208 -13231666.86008  21072303.62808  21072306.20608
  11120932.58808   8665639.77408  23853511.24408  23853516.90208
  -7998162.29408  -6232330.25508  22560464.89008  22560468.38008
  -8588889.53308  -6692631.99208  23011480.84708  23011485.11208
  -5022365.35808  -3913527.27808  24223446.15808  24223450.26508
 -21742603.96408 -16942278.98008  21275658.65908  21275660.88308
 -22419322.35409 -17469596.85308  20723292.25109  20723294.60908
 -17443501.31208 -13592322.55608  21895687.61908  21895690.05108
 93 04 16 19 12 00.0000000  0  8 18 29 02 11 28 27 19 31
 -16709534.65608 -13020418.83608  21123892.72208  21123895.35208
  11533895.28908   8987428.04108  23932096.22108  23932102.04908
  -8267179.65908  -6441954.00408  22509272.46308  22509275.87708
  -8724880.31908  -6798598.76608  22985602.56308  22985606.89208
  -4746425.16108  -3698509.23008  24275955.97808  24275960.16108
 -21943168.31708 -17098562.86108  21237492.54508  21237494.70508
 -22397056.84909 -17452247.14708  20727529.29109  20727531.65108
 -17383447.29608 -13545527.17108  21907115.44608  21907117.88008
 93 04 16 19 14 00.0000000  0  8 18 29 02 11 28 27 19 31
 -16430996.38208 -12803376.24408  21176897.00908  21176899.70508
  11950250.40708   9311859.70008  24011326.67708  24011332.86408
  -8531206.90208  -6647689.39308  22459029.56908  22459032.99208
  -8851409.16408  -6897192.54408  22961524.90508  22961529.07208
  -4463143.19008  -3477770.30408  24329862.96208  24329867.06108
 -22140535.85908 -17252355.71808  21199934.70608  21199936.85708
 -22370939.25409 -17431895.81608  20732499.44509  20732501.73008
 -17312980.10008 -13490617.62308  21920524.96708  21920527.30608
 93 04 16 19 16 00.0000000  0  8 18 29 02 11 28 27 19 31
 -16145817.41308 -12581159.08608  21231164.79008  21231167.65308
  12369408.23408   9638475.25808  24091090.30708  24091096.97908
  -8790739.47008  -6849922.46508  22409642.08008  22409645.53008
  -8969040.10708  -6988852.84908  22939140.27208  22939144.51008
  -4173110.42108  -3251771.01907  24385054.45408  24385058.59207
 -22335193.28108 -17404036.78008  21162892.57308  21162894.68708
 -22341456.50709 -17408922.28508  20738109.82009  20738112.13308
 -17233018.75608 -13428310.06008  21935741.07208  21935743.39908
 93 04 16 19 18 00.0000000  0  8 18 29 02 11 28 27 19 31
 -15853276.06608 -12353205.01408  21286833.73008  21286836.67308
  12791604.96408   9967458.76008  24171432.24208  24171439.27508
  -9045373.10008  -7048338.20808  22361186.85708  22361190.38608
  -9077291.60508  -7073204.47008  22918540.63808  22918544.80208
  -3876422.14608  -3020585.63307  24441512.38808  24441516.74107
 -22526770.21708 -17553317.47408  21126436.72908  21126438.76408
 -22308381.78509 -17383149.81308  20744403.77409  20744406.03408
 -17142972.04608 -13358143.80008  21952876.41608  21952878.73408
 93 04 16 19 20 00.0000000  0  8 18 29 02 11 28 27 19 31
 -15554732.87408 -12120574.18108  21343644.90008  21343647.80708
  13215865.75908  10298050.58908  24252167.31008  24252174.39808
  -9295820.83108  -7243492.20408  22313528.22108  22313531.66108
  -9176816.15008  -7150755.91608  22899601.59808  22899605.74508
  -3574046.90408  -2784968.81607  24499053.03608  24499057.26907
 -22716300.05808 -17701003.02608  21090370.43808  21090372.38008
 -22272200.98509 -17354957.02408  20751288.72809  20751291.19708
 -17043808.66708 -13280873.67008  21971746.57908  21971748.97608
 93 04 16 19 22 00.0000000  0  8 18 29 02 11 28 27 19 31
 -15250262.75408 -11883324.98308  21401583.83908  21401586.78708
  13641788.53408  10629937.43508  24333218.48808  24333225.84408
  -9542422.17108  -7435648.99908  22266601.41008  22266604.92408
  -9267589.24508  -7221488.06108  22882328.02308  22882332.08008
  -3265949.18808  -2544892.90807  24557682.24108  24557686.58407
 -22903959.09308 -17847230.81508  21054660.03408  21054662.07208
 -22233219.42409 -17324581.80108  20758706.66609  20758709.07708
 -16935766.01308 -13196684.63708  21992306.44408  21992308.90008
 93 04 16 19 24 00.0000000  0  8 18 29 02 11 28 27 19 31
 -14939258.10208 -11640983.93408  21460766.17308  21460769.13508
  14069786.45808  10963441.22908  24414664.59308  24414672.17808
  -9784518.27808  -7624295.20008  22220532.05408  22220535.44508
  -9349085.32708  -7284991.38308  22866819.89808  22866823.69908
  -2951908.00308  -2300185.75308  24617442.51908  24617447.03108
 -23088886.14308 -17991329.77908  21019469.66608  21019471.64708
 -22190951.06709 -17291645.43908  20766750.07309  20766752.50708
 -16818307.74308 -13105158.76608  22014657.97708  22014660.53408
 93 04 16 19 26 00.0000000  0  8 18 02 29 11 28 31 27 19
 -14621917.82408 -11393706.04308  21521154.25208  21521157.30808
 -10021910.93908  -7809276.38308  22175357.73208  22175361.02508
  14500114.79308  11298760.86707  24496554.34308  24496562.01907
  -9421043.13808  -7341062.29508  22853126.50408  22853130.59808
  -2631780.41208  -2050735.94208  24678360.85008  24678365.56708
 -16691468.51408 -13006323.04508  22038794.88108  22038797.31108
 -23270837.62408 -18133110.10608  20984845.28308  20984847.40208
 -22145270.35709 -17256050.11908  20775442.83909  20775445.31308
 93 04 16 19 28 00.0000000  0  8 18 02 29 11 28 31 27 19
 -14298313.59108 -11141547.15608  21582734.22008  21582737.42208
 -10254697.87308  -7990668.67608  22131059.59808  22131062.98008
  14932581.07808  11635746.44207  24578850.89108  24578858.78607
  -9483497.52408  -7389727.99508  22841241.77508  22841245.74408
  -2306290.52808  -1797107.74608  24740299.85208  24740304.59108
 -16555158.39408 -12900107.40608  22064733.91008  22064736.26608
 -23449875.37008 -18272619.99108  20950775.53208  20950777.59708
 -22095775.84809 -17217483.01208  20784861.38809  20784863.85608
 93 04 16 19 30 00.0000000  0  8 18 02 29 11 28 31 27 19
 -13968689.19208 -10884697.26108  21645459.97508  21645463.15808
 -10482832.33608  -8168435.66208  22087647.01008  22087650.33208
  15366864.46708  11974147.93507  24661493.10708  24661501.25807
  -9536140.60308  -7430748.56108  22831224.13108  22831228.01908
  -1975455.55107  -1539314.57107  24803256.04507  24803260.69607
 -16409340.65608 -12786483.23908  22092481.98208  22092484.42508
 -23625680.95308 -18409611.31708  20917320.89408  20917322.88908
 -22042661.20709 -17176095.02108  20794968.86909  20794971.27908
 93 04 16 19 32 00.0000000  0  8 18 02 29 11 28 31 27 19
 -13633326.01708 -10623375.60308  21709277.71408  21709280.92608
 -10706361.42508  -8342614.04308  22045110.82008  22045114.05408
  15802796.67808  12313834.24007  24744448.97608  24744457.42907
  -9579027.06508  -7464166.53608  22823062.99508  22823067.12408
  -1638864.33507  -1277036.01307  24867307.31407  24867312.16307
 -16254425.15108 -12665769.91708  22121961.47908  22121964.01108
 -23798346.47708 -18544155.85308  20884463.71708  20884465.73408
 -21986007.39409 -17131949.22308  20805749.71209  20805752.16708
 93 04 16 19 34 00.0000000  0  8 18 02 11 29 28 31 27 19
 -13292296.14708 -10357638.35308  21774173.75808  21774177.12608
 -10925846.76408  -8513641.45208  22003343.98508  22003347.18608
  -9612594.87908  -7490323.18908  22816675.16908  22816679.38408
  16239848.74207  12654393.15007  24827618.04107  24827626.87407
  -1297399.15907  -1010959.52907  24932285.93407  24932290.87407
 -16090681.17708 -12538177.28608  22153120.99908  22153123.50508
 -23968627.66608 -18676842.45008  20852060.17808  20852062.20308
 -21926204.27809 -17085349.43008  20817129.92609  20817132.40708
 93 04 16 19 36 00.0000000  0  8 18 02 11 29 28 31 27 19
 -12946251.26608 -10087993.29908  21840024.17208  21840027.56808
 -11141112.15708  -8681380.60108  21962380.33708  21962383.45008
  -9637154.83508  -7509460.73208  22812001.55708  22812005.59308
  16677737.01807  12995603.67807  24910946.39407  24910955.34307
   -951864.21607   -741711.80007  24998039.35107  24998044.23907
 -15918477.96408 -12403993.05608  22185890.24108  22185892.84908
 -24136510.20808 -18807659.98008  20820113.24208  20820115.27408
 -21863486.32309 -17036478.33308  20829064.71709  20829067.31708
 93 04 16 19 38 00.0000000  0  8 18 02 11 29 28 27 19 31
 -12594847.30808  -9814172.33308  21906894.35408  21906897.85308
 -11352090.99808  -8845779.58608  21922232.24008  21922235.44708
  -9651989.00208  -7521019.75308  22809178.69408  22809182.64408
  17116842.87407  13337763.01507  24994506.31407  24994515.47607
   -601319.34907   -468560.21207  25064746.10807  25064750.75207
 -24301245.55308 -18936025.13908  20788765.06808  20788767.13908
 -21797022.04709 -16984688.04108  20841712.53609  20841715.02108
 -15737563.21508 -12263020.62008  22220317.29808  22220319.88908
 93 04 16 19 40 00.0000000  0  8 18 02 11 31 29 28 27 19
 -12237987.17508  -9536099.82408  21974802.71108  21974806.42008
 -11558512.91708  -9006627.73008  21882951.31508  21882954.56908
  -9657077.24808  -7524984.59608  22808210.36508  22808214.48208
 -15547916.55008 -12115244.06908  22256405.92508  22256408.52808
  17556711.15807  13680516.49507  25078211.26707  25078220.69707
   -246330.60807   -191945.81107  25132298.55907  25132303.15907
 -24462894.51108 -19061985.32608  20758004.31608  20758006.24208
 -21727078.55409 -16930186.67308  20855022.40809  20855024.94508
 93 04 16 19 42 00.0000000  0  8 18 02 11 31 29 28 27 19
 -11876402.98808  -9254346.24908  22043610.17208  22043613.89508
 -11760927.97908  -9164353.64208  21844433.03508  21844436.14408
  -9652867.70608  -7521704.42708  22809011.51108  22809015.52308
 -15350228.58508 -11961201.58108  22294024.73108  22294027.40008
  17996929.87407  14023543.00007  25161982.76907  25161992.80007
    112505.86007     87666.79907  25200583.25807  25200587.99707
 -24621895.04008 -19185881.80008  20727747.43208  20727749.47708
 -21654016.03609 -16873254.90208  20868925.75109  20868928.37908
 93 04 16 19 44 00.0000000  0  8 18 02 11 31 29 28 27 19
 -11509297.08108  -8968290.04508  22113468.44008  22113472.20008
 -11958292.96808  -9318144.42508  21806875.67508  21806878.70708
  -9638188.60108  -7510266.15708  22811804.79608  22811808.91508
 -15143526.49208 -11800135.10908  22333358.92208  22333361.64808
  18438829.37407  14367879.26207  25246074.20307  25246084.68607
    476405.31307    371224.55707  25269831.13907  25269836.04207
 -24776819.15508 -19306601.86908  20698266.40308  20698268.36608
 -21576605.58209 -16812935.12808  20883656.43109  20883659.14208
 93 04 16 19 46 00.0000000  0  7 18 02 11 28 31 27 19
 -11137298.72308  -8678421.56508  22184257.69808  22184261.42608
 -12150749.31708  -9468110.29808  21770252.27308  21770255.32308
  -9613431.47208  -7490974.88408  22816515.82008  22816519.96708
    844878.42807    658346.34007  25339949.16307  25339954.41507
 -14927946.51808 -11632150.81508  22374382.48208  22374385.13808
 -24928039.63208 -19424435.98608  20669490.06508  20669492.06608
 -21495047.56009 -16749383.48508  20899176.48109  20899179.19808
 93 04 16 19 48 00.0000000  0  8 18 16 02 11 28 27 19 31
 -10760046.75708  -8384459.38108  22256046.64808  22256050.42208
        -0.25918         0.28318  23852384.26918  23852389.27118
 -12338511.19508  -9614418.13408  21734522.35508  21734525.31308
  -9578391.33008  -7463670.87908  22823183.92708  22823187.82808
   1217506.30207    948705.66507  25410857.77207  25410863.24107
 -25075426.61908 -19539282.98308  20641443.28108  20641445.26708
 -21409559.11009 -16682769.17108  20915444.51109  20915447.11008
 -14703454.40608 -11457222.00708  22417102.04208  22417104.69208
 93 04 16 19 50 00.0000000  0  7 18 16 02 11 31 27 19
 -10377837.24008  -8086634.17408  22328778.94708  22328782.89308
     79052.74208     61599.71708  23867427.79008  23867432.91308
 -12521828.76108  -9757262.86408  21699638.04608  21699641.05008
  -9533261.72708  -7428504.96808  22831771.87108  22831775.73908
 -14470725.13708 -11275874.64008  22461389.10608  22461391.71508
 -25219244.70108 -19651349.00808  20614075.59808  20614077.59208
 -21320020.03809 -16612998.52708  20932483.34309  20932485.93908
 93 04 16 19 52 00.0000000  0  7 02 18 16 11 31 27 19
 -12700928.20108  -9896820.74708  21665556.41808  21665559.32208
  -9991587.66808  -7785660.89708  22402280.19508  22402284.18008
    164679.98108    128321.86308  23883722.34208  23883727.53808
  -9478883.94208  -7386132.65408  22842119.52508  22842123.53008
 -14230707.35608 -11088847.91308  22507063.02708  22507065.73608
 -25359791.20908 -19760865.74408  20587330.52008  20587332.47208
 -21227260.91009 -16540718.74708  20950134.82209  20950137.47908
 93 04 16 19 54 00.0000000  0  7 02 18 16 11 31 27 19
 -12876525.03908 -10033649.34608  21632141.48308  21632144.28908
  -9601625.10708  -7481794.39908  22476487.89408  22476492.08308
    257043.70708    200293.25708  23901298.79208  23901304.18508
  -9415356.85308  -7336631.02708  22854208.31608  22854212.27708
 -13983228.61608 -10896007.46608  22554156.72608  22554159.56608
 -25497339.42608 -19868046.14908  20561155.87208  20561157.84808
 -21131213.04109 -16465876.33508  20968412.17309  20968414.83608
 93 04 16 19 56 00.0000000  0  7 02 18 16 11 19 31 27
 -13047427.31708 -10166819.87208  21599619.72008  21599622.67708
  -9207588.24508  -7174753.15408  22551470.89708  22551475.27108
    356772.46608    278003.63208  23920276.83408  23920282.13308
  -9341981.56008  -7279455.49508  22868171.17108  22868175.26408
 -21031023.47309 -16387806.63008  20987477.77109  20987480.42908
 -13727752.79608 -10696935.53808  22602772.23708  22602775.16908
 -25631287.16808 -19972421.00708  20535666.42308  20535668.44708
 93 04 16 19 58 00.0000000  0  7 02 18 16 11 19 31 27
 -13214070.66508 -10296671.74908  21567908.52308  21567911.42608
  -8809692.77608  -6864705.21608  22627188.33308  22627192.81008
    463385.67908    361078.49008  23940564.99708  23940570.44308
  -9258842.97808  -7214672.23308  22883991.90908  22883996.05708
 -20926702.11309 -16306517.34908  21007329.54309  21007332.19708
 -13464957.88608 -10492160.43808  22652780.59808  22652783.55108
 -25761357.97708 -20073774.89108  20510914.82908  20510916.86808
 93 04 16 20 00 00.0000000  0  7 02 18 16 11 19 31 27
 -13376045.33308 -10422885.68808  21537085.72608  21537088.62508
  -8407401.55008  -6551232.03108  22703742.26408  22703746.73508
    577054.07208    449650.92008  23962195.56708  23962201.23608
  -9165495.08408  -7141933.67308  22901755.57408  22901759.59208
 -20818195.27409 -16221966.63608  21027977.76009  21027980.45308
 -13194041.50008 -10281056.91608  22704334.37708  22704337.22308
 -25886966.08208 -20171651.34108  20487012.41108  20487014.43508
 93 04 16 20 02 00.0000000  0  7 02 18 16 11 19 31 27
 -13532841.33008 -10545064.30908  21507248.38708  21507251.30008
  -8000781.36108  -6234385.63608  22781119.77208  22781124.41108
    698245.71908    544085.60408  23985257.77708  23985263.44108
  -9061853.30008  -7061173.88708  22921477.95908  22921481.95308
 -20705306.69409 -16134001.57508  21049459.75309  21049462.44608
 -12915109.59808 -10063707.52508  22757413.48308  22757416.32308
 -26007770.56208 -20265784.71108  20464024.10208  20464026.03708
 93 04 16 20 04 00.0000000  0  7 02 19 18 16 11 31 27
 -13685990.05108 -10664400.91308  21478105.02708  21478107.94908
 -20588694.54309 -16043135.02608  21071650.45709  21071653.12408
  -7591177.89808  -5915214.62608  22859065.13008  22859069.92408
    825835.89908    643506.09008  24009537.78508  24009543.55008
  -8949021.26208  -6973252.85508  22942949.30508  22942953.25508
 -12629414.42508  -9841088.05308  22811779.62708  22811782.50408
 -26125071.51709 -20357188.05908  20441702.48809  20441704.49308
 93 04 16 20 06 00.0000000  0  7 02 19 18 16 11 31 27
 -13835579.93108 -10780964.39908  21449639.10408  21449641.91208
 -20468446.84309 -15949435.58708  21094532.80409  21094535.61308
  -7178601.40408  -5593726.99808  22937576.24708  22937581.16508
    959260.75508    747473.10908  24034927.97808  24034934.07008
  -8827123.00908  -6878267.24008  22966145.76008  22966149.88308
 -12337400.53808  -9613544.93908  22867348.20308  22867351.16708
 -26238672.52508 -20445708.33608  20420084.93808  20420086.93408
 93 04 16 20 08 00.0000000  0  7 02 19 18 16 11 27 31
 -13980608.58409 -10893973.68708  21422041.05809  21422043.83808
 -20343963.46509 -15852435.63208  21118221.23609  21118224.07608
  -6762380.31108  -5269399.45708  23016781.05108  23016786.00108
   1099200.41508    856516.58108  24061558.08008  24061563.96708
  -8695558.56008  -6775749.55008  22991181.62708  22991185.83708
 -26347961.55008 -20530868.61808  20399287.92108  20399289.96908
 -12038268.11008  -9380454.91108  22924271.33508  22924274.26108
 93 04 16 20 10 00.0000000  0  8 02 19 18 16 11 26 27 31
 -14121161.34309 -11003495.26408  21395294.71309  21395297.52108
 -20215131.35909 -15752047.05708  21142737.28409  21142740.12008
  -6343257.83408  -4942811.12308  23096537.79608  23096543.03308
   1245499.03508    970515.05408  24089398.07708  24089403.95508
  -8554428.21408  -6665777.93508  23018037.88908  23018042.01708
        -0.16317        -0.59017  25456772.66417  25456776.97817
 -26452887.11209 -20612628.79408  20379321.27909  20379323.28908
 -11731984.53108  -9141792.52108  22982555.16108  22982558.12108
 93 04 16 20 12 00.0000000  0  8 02 19 18 16 11 26 27 31
 -14257703.15909 -11109891.43608  21369311.65409  21369314.45508
 -20081941.25509 -15648262.65508  21168082.59509  21168085.45108
  -5921031.06708  -4613803.90308  23176885.18108  23176890.81508
   1397852.02808   1089231.26508  24118390.05608  24118396.36708
  -8403711.36908  -6548336.30308  23046718.53608  23046722.46708
   -395025.90707   -307812.96807  25381601.79607  25381606.48907
 -26553117.66209 -20690730.51808  20360248.07809  20360250.00608
 -11419101.49008  -8897987.70308  23042095.04508  23042097.99908
 93 04 16 20 14 00.0000000  0  8 02 19 18 16 11 26 27 31
 -14389960.96409 -11212949.42208  21344143.83809  21344146.56308
 -19944026.98509 -15540797.08208  21194326.81009  21194329.64908
  -5495743.37008  -4282411.54108  23257815.36008  23257821.02708
   1556488.83308   1212843.92408  24148578.00508  24148584.46608
  -8243455.19908  -6423461.43808  23077214.16708  23077218.32108
   -787853.80807   -613912.68107  25306849.02607  25306853.73407
 -26648368.19809 -20764951.71208  20342122.47609  20342124.49808
 -11099570.38808  -8649002.60208  23102900.09008  23102903.00308
 93 04 16 20 16 00.0000000  0  8 02 19 18 16 11 26 27 31
 -14517276.42509 -11312156.22908  21319916.43609  21319919.13908
 -19801559.63609 -15429783.67008  21221437.55709  21221440.40608
  -5067359.04908  -3948606.25008  23339334.75808  23339340.52308
   1721438.26408   1341375.44908  24179967.16908  24179973.82908
  -8073495.33108  -6291025.27508  23109556.61108  23109560.69208
  -1178129.97507   -918023.87607  25232581.90207  25232586.62207
 -26738641.81709 -20835294.79708  20324944.04409  20324946.03908
 -10773276.53108  -8394747.85608  23164991.83308  23164994.80608
 93 04 16 20 18 00.0000000  0  8 02 19 18 16 11 26 27 31
 -14640127.84709 -11407884.54908  21296538.49009  21296541.17808
 -19654876.91809 -15315485.55608  21249350.39709  21249353.41808
  -4636467.71008  -3612847.48508  23421331.23508  23421337.03608
   1891763.27708   1474095.75608  24212379.35508  24212385.90508
  -7894328.50808  -6151414.85108  23143651.06408  23143655.14308
  -1566130.69507  -1220361.93907  25158747.69507  25158752.39407
 -26824036.39809 -20901836.02508  20308693.97509  20308695.98008
 -10440785.16208  -8135663.86908  23228262.90208  23228265.93208
 93 04 16 20 20 00.0000000  0  8 02 19 18 16 11 26 27 31
 -14759249.60909 -11500706.64708  21273870.34309  21273873.08008
 -19503708.30509 -15197691.95008  21278116.96309  21278119.90108
  -4203265.73608  -3275288.29208  23503767.48408  23503773.29708
   2067983.93708   1611410.00508  24245913.59708  24245920.20008
  -7706136.38008  -6004771.68608  23179462.89408  23179467.00708
  -1951174.45907  -1520395.85807  25085476.24707  25085480.84307
 -26904745.01509 -20964725.86908  20293335.65609  20293337.64808
 -10102564.18308  -7872115.25508  23292624.25808  23292627.55408
 93 04 16 20 22 00.0000000  0  8 02 19 18 16 11 26 27 31
 -14874851.54109 -11590786.01708  21251871.94609  21251874.69808
 -19348786.28909 -15076973.61908  21307597.78009  21307600.74608
  -3768264.08208  -2936326.76408  23586546.24708  23586552.05008
   2248771.33208   1752282.76208  24280316.64808  24280323.53408
  -7509646.05408  -5851662.37008  23216853.71108  23216857.96808
  -2334494.86307  -1819086.89608  25012532.92007  25012537.34608
 -26981232.71209 -21024326.67708  20278780.57409  20278782.47908
  -9758903.75808  -7604328.12808  23358020.82108  23358024.15808
 93 04 16 20 24 00.0000000  0  8 02 19 18 16 11 26 27 31
 -14986325.15709 -11677648.52408  21230659.23309  21230661.91708
 -19189621.26508 -14952949.04308  21337885.82408  21337888.84808
  -3331217.52608  -2595771.81908  23669713.97608  23669720.14808
   2434561.86008   1897054.04008  24315671.96908  24315678.68108
  -7304333.43008  -5691678.57908  23255923.54008  23255927.72108
  -2715098.10707  -2115660.68907  24940106.72207  24940110.80207
 -27052534.64309 -21079886.63008  20265212.26209  20265214.20208
  -9409576.17008  -7332125.03508  23424496.02508  23424499.28708
 93 04 16 20 26 00.0000000  0  8 02 19 18 16 11 26 27 31
 -15094011.46509 -11761559.88608  21210167.21209  21210169.86508
 -19025796.26908 -14825293.31908  21369060.85708  21369063.74808
  -2892528.67208  -2253937.19208  23753194.18408  23753200.67808
   2625474.33308   2045816.39308  24352001.65208  24352008.78408
  -7090212.01308  -5524830.86108  23296669.38908  23296673.73208
  -3092381.65208  -2409647.73007  24868311.82608  24868315.83307
 -27118698.76009 -21131443.09908  20252621.63609  20252623.59008
  -9054820.98908  -7055692.66308  23492003.74508  23492007.08708
 93 04 16 20 28 00.0000000  0  8 02 19 18 16 11 26 27 31
 -15197973.00009 -11842568.83508  21190383.95309  21190386.60808
 -18857540.05408 -14694184.69308  21401079.17908  21401082.10208
  -2451959.64108  -1910637.52208  23837032.46408  23837039.19108
   2821051.83408   2198213.87007  24389219.14708  24389226.40307
  -6867576.18308  -5351348.54408  23339035.80108  23339039.91108
  -3466710.30708  -2701332.29707  24797079.29608  24797083.25307
 -27179684.38109 -21178964.37708  20241016.48709  20241018.43908
  -8694824.08308  -6775175.81608  23560508.98408  23560512.43508
 93 04 16 20 30 00.0000000  0  8 02 19 18 16 11 26 27 31
 -15297745.49409 -11920313.60008  21171397.78509  21171400.48708
 -18684578.93508 -14559409.92408  21433992.69508  21433995.65108
  -2009597.04008  -1565940.30408  23921211.86908  23921219.00408
   3021832.45908   2354665.68908  24427427.07208  24427434.37508
  -6636128.41408  -5170999.75908  23383079.00808  23383083.14908
  -3837406.47608  -2990186.29407  24726537.94308  24726541.84807
 -27235046.40209 -21222103.62608  20230481.44309  20230483.42208
  -8329296.91208  -6490349.70108  23630066.54208  23630070.16908
 93 04 16 20 32 00.0000000  0  8 02 19 18 16 11 26 27 31
 -15393687.11609 -11995073.27708  21153140.77209  21153143.37008
 -18507228.98908 -14421215.29308  21467741.23708  21467744.42208
  -1566384.85508  -1220581.13808  24005553.09908  24005560.47608
   3226959.53108   2514504.36408  24466461.93308  24466469.34508
  -6396587.38108  -4984344.53108  23428662.07308  23428666.59008
  -4204858.05908  -3276512.02107  24656614.01108  24656618.01407
 -27285414.61809 -21261351.59308  20220896.68209  20220898.65208
  -7959356.21308  -6202084.48808  23700464.18308  23700467.89108
 93 04 16 20 34 00.0000000  0  8 02 19 18 16 11 26 27 31
 -15485760.48409 -12066818.71508  21135619.70509  21135622.37108
 -18325423.18908 -14279548.57508  21502337.79108  21502341.04008
  -1121848.83008   -874190.41708  24090146.33208  24090153.92108
   3436023.34408   2677410.63208  24506245.73808  24506253.42608
  -6149046.41608  -4791455.61108  23475767.81008  23475772.20508
  -4569026.43008  -3560279.41308  24587314.93908  24587318.95208
 -27330578.30309 -21296544.07808  20212302.34609  20212304.30608
  -7584701.13608  -5910145.74408  23771758.92908  23771762.72008
 93 04 16 20 36 00.0000000  0  8 02 19 18 16 11 26 27 31
 -15574171.80509 -12135710.61608  21118795.64509  21118798.19708
 -18139272.04408 -14134495.86408  21537761.29808  21537764.49908
   -676223.70608   -526951.07208  24174946.75808  24174954.66708
   3649076.96408   2843425.79107  24546789.05408  24546796.77507
  -5893422.38308  -4592268.17908  23524411.43208  23524415.88908
  -4929263.26908  -3840983.27708  24518764.06308  24518768.03708
 -27370093.50109 -21327335.14308  20204782.80909  20204784.81008
  -7205390.20608  -5614579.09108  23843939.69708  23843943.45908
 93 04 16 20 38 00.0000000  0  8 02 19 18 16 11 26 27 31
 -15659206.10909 -12201971.07808  21102614.09609  21102616.67808
 -17948782.85108 -13986062.86408  21574010.32708  21574013.38108
   -230088.46808   -179314.28508  24259844.26308  24259852.54208
   3865929.24308   3012400.92207  24588055.28008  24588063.14107
  -5630231.77708  -4387184.73008  23574494.96608  23574499.54408
  -5285860.83808  -4118851.34708  24450905.63308  24450909.63908
 -27404400.37609 -21354067.78208  20198254.41409  20198256.42308
  -6822014.58708  -5315845.12208  23916893.80208  23916897.60608
 93 04 16 20 40 00.0000000  0  8 02 19 18 16 11 26 27 31
 -15741022.67109 -12265724.21508  21087044.88009  21087047.52608
 -17754084.04408 -13834349.65908  21611060.33508  21611063.56008
    216335.93308    168547.78208  24344796.83008  24344805.35408
   4085936.92208   3183834.88107  24629921.70708  24629929.84307
  -5359798.41208  -4176457.57608  23625957.01808  23625961.44708
  -5639008.56608  -4394031.23608  24383703.79508  24383707.76008
 -27433498.04709 -21376741.29608  20192717.32009  20192719.28908
  -6434868.87408  -5014173.40308  23990565.26608  23990569.20208
 93 04 16 20 42 00.0000000  0  8 02 19 18 16 11 26 27 31
 -15819381.61509 -12326783.10308  21072133.61909  21072136.30508
 -17555054.90108 -13679262.17008  21648934.45708  21648937.78708
    663030.13508    516620.05508  24429800.62408  24429809.38008
   4309060.03208   3357696.37207  24672380.99808  24672389.48707
  -5081950.56808  -3959952.89308  23678829.92608  23678834.16408
  -5987981.98908  -4665958.42108  24317296.19408  24317300.13108
 -27456687.39509 -21394810.91808  20188304.57909  20188306.54908
  -6044003.67308  -4709603.42708  24064944.71308  24064948.84408
 93 04 16 20 44 00.0000000  0  8 02 19 18 16 11 26 27 31
 -15894317.61909 -12385174.75208  21057873.70909  21057876.36308
 -17351720.25508 -13520819.73708  21687627.70308  21687631.20608
   1110430.57008    865242.58808  24514939.12008  24514948.17908
   4535676.72208   3534280.06907  24715505.49208  24715513.98207
  -4796696.33308  -3737676.99408  23733112.00508  23733116.45108
  -6332498.28608  -4934412.53108  24251736.75008  24251740.60108
 -27474322.82909 -21408552.80908  20184948.60409  20184950.62408
  -5649267.20408  -4402016.88808  24140060.84208  24140065.12108
 93 04 16 20 46 00.0000000  0  8 02 19 18 16 11 26 27 31
 -15965864.10309 -12440925.21908  21044258.91109  21044261.45108
 -17143593.40808 -13358643.14008  21727233.17608  21727236.53808
   1557935.57708   1213946.53808  24600097.34208  24600106.72908
   4765202.29808   3713130.43007  24759183.21508  24759191.73807
  -4504330.09308  -3509859.29308  23788747.47808  23788752.10608
  -6672957.48108  -5199705.27908  24186949.53908  24186953.28908
 -27486158.80009 -21417775.64908  20182696.29909  20182698.31008
  -5250869.85808  -4091577.69508  24215873.49508  24215877.89208
 93 04 16 20 48 00.0000000  0  8 02 19 18 16 11 26 27 31
 -16033775.57609 -12493843.21408  21031335.67409  21031338.25808
 -16930807.00908 -13192835.73308  21767725.21808  21767728.61908
   2005340.00508   1562572.10008  24685236.47208  24685246.19008
   4998212.54808   3894696.09707  24803524.19808  24803532.72007
  -4204826.58108  -3276480.10808  23845741.28308  23845745.78108
  -7008443.48608  -5461122.79608  24123108.47008  24123112.15708
 -27491689.64809 -21422085.40308  20181643.85009  20181645.78708
  -4848955.16508  -3778397.71208  24292355.51808  24292360.03608
 93 04 16 20 50 00.0000000  0  8 02 19 18 16 11 26 27 31
 -16098438.54409 -12544229.89708  21019030.72309  21019033.32608
 -16713599.26208 -13023583.11208  21809058.62208  21809062.03608
   2452603.95407   1911088.20107  24770348.76007  24770358.75607
   5233778.92508   4078253.53507  24848351.51908  24848360.53407
  -3898577.07508  -3037844.31008  23904018.63508  23904023.24508
  -7339497.54108  -5719086.80408  24060110.86808  24060114.51708
 -27491643.09809 -21422049.12908  20181652.67109  20181654.68608
  -4443693.56708  -3462609.74207  24369474.55808  24369478.82807
 93 04 16 20 52 00.0000000  0  8 02 19 18 16 11 26 27 31
 -16159646.97809 -12591924.73808  21007383.10409  21007385.70608
 -16492051.50308 -12850948.66508  21851217.89808  21851221.39008
   2899632.29007   2259420.66707  24855416.53607  24855426.86507
   5471886.73207   4263791.27007  24893662.61307  24893671.91307
  -3585731.04208  -2794068.37108  23963551.40408  23963556.03408
  -7665649.74308  -5973231.18008  23998046.02708  23998049.79108
 -27485628.93309 -21417362.77808  20182797.12809  20182799.11508
  -4035710.26208  -3144700.94507  24447111.52208  24447115.81607
 93 04 16 20 54 00.0000000  0  8 02 19 18 16 11 26 27 31
 -16217859.19109 -12637284.86008  20996305.65609  20996308.24508
 -16266139.35208 -12674913.38508  21894207.71408  21894211.18208
   3346161.69908   2607364.36907  24940389.33608  24940399.87507
   5711845.12307   4450770.97707  24939325.83907  24939335.36807
  -3266577.79308  -2545377.71608  24024284.50108  24024289.26208
  -7986922.81708  -6223573.65108  23936909.72508  23936913.36508
 -27473683.22209 -21408054.44108  20185070.39509  20185072.35808
  -3624727.24508  -2824454.71607  24525319.23308  24525323.49307
 93 04 16 20 56 00.0000000  0  8 19 18 16 02 11 26 27 31
 -16035031.88308 -12494829.81008  21938186.05708  21938189.61708
   3792162.04107   2954895.79407  25025261.22907  25025272.24907
   5954130.21507   4639563.72507  24985431.71807  24985441.32307
 -16272584.32909 -12679927.78308  20985891.74209  20985894.39108
  -2940751.40008  -2291487.20508  24086287.24008  24086292.15308
  -8302662.56608  -6469604.46408  23876826.35208  23876829.82908
 -27455299.24109 -21393729.26908  20188568.69009  20188570.67608
  -3210579.17908  -2501742.21607  24604129.13108  24604133.57307
 93 04 16 20 58 00.0000000  0  8 19 18 16 02 11 26 27 31
 -15799442.21408 -12311253.60908  21983017.46608  21983021.05408
   4237753.09307   3302108.27107  25110055.32707  25110066.71007
   6198914.80607   4830304.17607  25032013.10907  25032023.00107
 -16323573.48609 -12719659.56508  20976188.85409  20976191.43908
  -2608574.96308  -2032648.62008  24149498.41908  24149503.34608
  -8612698.01508  -6711190.36908  23817828.32108  23817831.88808
 -27430113.43109 -21374103.96908  20193361.39209  20193363.43708
  -2793940.75908  -2177089.20707  24683413.11008  24683417.57407
 93 04 16 21 00 00.0000000  0  8 19 18 16 02 11 26 27 31
 -15559429.41208 -12124230.80708  22028690.50308  22028694.09108
   4682784.04307   3648884.33607  25194742.88607  25194754.45107
   6445862.71507   5022730.39207  25079006.25007  25079016.64707
 -16371408.71909 -12756933.74408  20967086.04009  20967088.63908
  -2270143.70308  -1768936.13008  24213900.00108  24213904.84608
  -8916684.51308  -6948062.78508  23759981.36208  23759984.89808
 -27398356.52109 -21349358.34308  20199404.54509  20199406.55308
  -2374634.02808  -1850356.97907  24763204.71308  24763209.32407
 93 04 16 21 02 00.0000000  0  8 19 18 16 02 11 26 27 31
 -15314179.05808 -11933126.80508  22075360.25908  22075363.91808
   5126879.47307   3994931.47407  25279252.43107  25279264.19207
   6694597.11208   5216548.65707  25126339.65508  25126349.88707
 -16415758.33009 -12791491.83908  20958646.51709  20958649.11308
  -1925686.90408  -1500528.42508  24279448.12708  24279452.93008
  -9215045.34008  -7180551.56308  23703205.04708  23703208.58708
 -27360045.65109 -21319505.74308  20206694.92409  20206696.89508
  -1952763.13708  -1521626.69607  24843484.25408  24843488.94107
 93 04 16 21 04 00.0000000  0  8 19 26 18 16 02 11 27 31
 -15065219.97108 -11739132.88808  22122735.69908  22122739.42508
  -9508452.84708  -7409180.63608  23647371.47008  23647374.85808
   5569492.23507   4339823.33607  25363479.78007  25363491.86007
   6944168.20407   5411018.86106  25173831.97107  25173842.27506
 -16457329.18509 -12823884.66308  20950735.87509  20950738.35408
  -1576160.77308  -1228170.60908  24345960.85008  24345965.70608
 -27315611.39909 -21284881.67308  20215150.52709  20215152.42908
  -1529441.55207  -1191765.99607  24924039.71207  24924044.66707
 93 04 16 21 06 00.0000000  0  8 19 26 18 16 02 11 27 31
 -14812218.23508 -11541988.87308  22170880.44108  22170884.25208
  -9796149.10508  -7633359.38908  23592624.56308  23592627.88508
   6010195.93407   4683227.61207  25447343.85507  25447356.25507
   7194667.61507   5606212.42106  25221500.98907  25221511.35406
 -16496279.32209 -12854235.37908  20943323.87609  20943326.40808
  -1221633.02208   -951915.43608  24413425.37108  24413430.40008
 -27265126.83509 -21245543.07108  20224757.43409  20224759.41708
  -1104491.73607   -860636.52107  25004905.11707  25004910.11707
 93 04 16 21 08 00.0000000  0  8 19 26 18 16 02 11 27 31
 -14554362.32508 -11341062.41408  22219948.92208  22219952.75708
 -10077678.59508  -7852732.86208  23539051.25208  23539054.61608
   6449650.52607   5025658.62007  25530969.95907  25530982.71907
   7446132.96407   5802158.69806  25269353.90607  25269364.52506
 -16532310.17109 -12882311.33508  20936467.39009  20936469.90908
   -861769.71108   -671502.66308  24481905.40008  24481910.39808
 -27208076.86109 -21201088.56708  20235613.69409  20235615.65908
   -677482.48007   -527902.23807  25086162.52107  25086167.43607
 93 04 16 21 10 00.0000000  0  7 19 18 02 11 26 27 31
 -14291942.70008 -11136579.83708  22269885.90108  22269889.78808
   6887490.94507   5366831.90607  25614289.10407  25614301.98707
 -16565333.81609 -12908044.02908  20930183.20909  20930185.64708
   -496897.39908   -387186.77808  24551338.38108  24551343.53808
 -10352905.25508  -8067195.03608  23486677.10808  23486680.66708
 -27144306.24709 -21151397.19708  20247748.80109  20247750.84808
   -249089.46807   -194089.66507  25167683.30807  25167688.06707
 93 04 16 21 12 00.0000000  0  7 19 15 02 11 26 27 31
 -14025541.86408 -10928995.02708  22320580.36908  22320584.32808
        -0.16118        -0.44118  23991096.44118  23991101.43618
 -16595542.11409 -12931582.93408  20924434.68509  20924437.16508
   -127489.23308    -99336.49508  24621634.50508  24621639.70508
 -10621967.00308  -8276853.35908  23435476.28708  23435479.71308
 -27074156.74309 -21096735.26308  20261097.75509  20261099.79908
    180484.10207    140642.91307  25249428.37607  25249433.21907
 93 04 16 21 14 00.0000000  0  8 19 13 15 02 11 26 27 31
 -13754899.57208 -10718105.19308  22372082.28508  22372086.21908
        -0.10118        -0.62417  24182685.48518  24182696.00017
   -128292.56708    -99968.22608  23966682.96308  23966687.90708
 -16623081.12409 -12953041.88008  20919194.13009  20919196.69608
    246518.98408    192098.22607  24692806.06708  24692811.30207
 -10884612.54708  -8481512.06608  23385496.52108  23385499.80608
 -26997347.14709 -21036883.66308  20275714.24209  20275716.21208
    611197.51907    476263.61507  25331390.41807  25331395.44507
 93 04 16 21 16 00.0000000  0  7 19 13 15 02 11 26 27
 -13480037.83508 -10503927.48308  22424386.92208  22424391.00408
   -479597.47808   -373711.46907  24091420.03808  24091430.27407
   -249637.85408   -194522.70008  23943591.40108  23943596.21708
 -16647886.83609 -12972370.98108  20914473.87709  20914476.31208
    624924.50608    486959.41107  24764814.45308  24764819.65607
 -11141052.79408  -8681335.49608  23336697.40908  23336700.65208
 -26913961.68309 -20971908.01908  20291582.02709  20291584.00308
 93 04 16 21 18 00.0000000  0  7 19 13 15 02 11 26 27
 -13200543.16108 -10286139.68808  22477573.25108  22477577.20708
   -957984.20108   -746478.92107  24000384.86608  24000394.90607
   -363868.83608   -283533.62408  23921854.04508  23921858.64108
 -16669962.17209 -12989572.52308  20910272.98709  20910275.45908
   1007573.77608    785127.42907  24837630.31008  24837635.62607
 -11390830.28208  -8875967.16708  23289166.22608  23289169.45108
 -26823720.26909 -20901590.07608  20308754.37309  20308756.47508
 93 04 16 21 20 00.0000000  0  7 13 15 11 02 26 27 19
  -1434517.84308  -1117802.34207  23909702.35308  23909711.95707
   -470410.44708   -366552.88208  23901579.54108  23901584.32708
   1394721.78008   1086800.94807  24911302.35408  24911307.80407
 -16688399.10409 -13003938.95408  20906764.54509  20906767.06908
 -11633105.60108  -9064753.01608  23243062.68408  23243065.87608
 -26726111.74109 -20825531.53708  20327328.77309  20327330.78508
 -12916319.62108 -10064667.05808  22531659.35408  22531663.43508
 93 04 16 21 22 00.0000000  0  7 13 15 11 02 26 27 19
  -1909179.34008  -1487667.00307  23819376.21108  23819385.41307
   -569317.87908   -443623.48208  23882757.94308  23882762.88508
   1786000.88607   1391693.49207  24985760.47607  24985766.03307
 -16704004.90309 -13016099.31408  20903794.83609  20903797.37408
 -11868069.24208  -9247841.45808  23198350.44908  23198353.77208
 -26621575.36409 -20744074.67808  20347221.42809  20347223.43108
 -12627578.94208  -9839674.60208  22586605.04108  22586609.26608
 93 04 16 21 24 00.0000000  0  7 13 15 11 02 26 27 19
  -2382134.81708  -1856202.42407  23729374.70908  23729383.73607
   -660832.35508   -514933.30208  23865343.16908  23865347.85408
   2180859.93307   1699375.63507  25060899.99207  25060905.52307
 -16717196.05209 -13026378.12608  20901284.64709  20901287.18108
 -12096337.96208  -9425713.07508  23154912.13308  23154915.49108
 -26510462.58809 -20657493.35108  20368365.51909  20368367.59808
 -12334686.29908  -9611446.85608  22642341.00408  22642345.25108
 93 04 16 21 26 00.0000000  0  7 13 15 11 02 26 27 19
  -2853006.93208  -2223114.57107  23639769.95408  23639778.47407
   -744662.96908   -580255.68808  23849390.47508  23849395.26508
   2579286.80108   2009837.87607  25136718.35708  25136723.88607
 -16727460.53009 -13034376.40808  20899331.43709  20899333.94008
 -12317123.32208  -9597753.50008  23112898.04708  23112901.25508
 -26392115.45409 -20565274.88408  20390886.27309  20390888.38508
 -12037317.99808  -9379731.60708  22698928.42308  22698932.82708
 93 04 16 21 28 00.0000000  0  7 13 15 11 02 26 27 19
  -3321665.16308  -2588301.70307  23550586.39708  23550594.59507
   -820766.87308   -639557.23908  23834908.47808  23834913.11408
   2981026.24107   2322881.34307  25213167.07707  25213172.67907
 -16734964.26609 -13040223.45408  20897903.58409  20897906.01808
 -12530604.57208  -9764102.40908  23072273.85208  23072276.93308
 -26266553.76608 -20467434.67808  20414779.88508  20414781.99508
 -11736021.57508  -9144955.50608  22756263.40208  22756268.06608
 93 04 16 21 30 00.0000000  0  7 13 15 11 02 26 27 19
  -3787922.74308  -2951618.23907  23461859.67608  23461867.63707
   -889051.35108   -692765.73508  23821914.14908  23821918.70808
   3385879.94707   2638351.55907  25290208.30107  25290213.90107
 -16740017.49009 -13044161.01608  20896941.83909  20896944.37408
 -12736846.33108  -9924810.17808  23033027.22108  23033030.31208
 -26133888.71008 -20364059.38308  20440025.30708  20440027.38308
 -11430400.49608  -8906809.55208  22814421.46908  22814426.14408
 93 04 16 21 32 00.0000000  0  6 13 15 26 19 02 27
  -4251454.28108  -3312810.59507  23373651.75308  23373659.43107
   -949290.14008   -739704.84908  23810450.89408  23810455.57408
 -12935535.92208 -10079633.16108  22995217.95008  22995220.87908
 -11120394.08908  -8665246.46508  22873414.02708  22873418.65008
 -16742292.66009 -13045933.87608  20896508.91509  20896511.38308
 -25994376.70808 -20255348.80308  20466573.64608  20466575.85708
 93 04 16 21 34 00.0000000  0  6 13 15 26 19 02 27
  -4711919.27308  -3671613.44107  23286027.44608  23286034.90707
  -1001245.65308   -780189.51408  23800563.93808  23800568.57608
 -13126146.63308 -10228160.93408  22958945.98508  22958948.93208
 -10806255.96808  -8420463.86408  22933192.67608  22933197.54008
 -16741559.04109 -13045362.21608  20896648.55209  20896650.95108
 -25847680.42208 -20141040.07708  20494489.09208  20494491.23808
 93 04 16 21 36 00.0000000  0  6 13 15 26 02 27 19
  -5169395.24308  -4028087.25107  23198971.92108  23198979.07107
  -1045104.63808   -814365.20508  23792217.71608  23792222.31908
 -13309161.89508 -10370770.17008  22924119.20508  22924122.12708
 -16738409.43609 -13042907.95608  20897247.82409  20897250.32708
 -25693974.29208 -20021269.14208  20523738.44608  20523740.56208
 -10488222.35008  -8172645.80108  22993712.81808  22993717.66608
 93 04 16 21 38 00.0000000  0  6 13 15 26 02 27 19
  -5623991.48508  -4382317.23207  23112464.48408  23112471.50707
  -1081091.42508   -842406.69808  23785369.55908  23785374.33708
 -13484735.41808 -10507580.66308  22890708.58108  22890711.66808
 -16733170.14409 -13038825.38208  20898244.87709  20898247.33008
 -25533389.47708 -19896138.18708  20554296.75108  20554298.92108
 -10166551.97008  -7921993.90808  23054924.79108  23054929.89708
 93 04 16 21 40 00.0000000  0  7 13 15 11 02 26 27 19
  -6074557.86308  -4733407.11408  23026723.93108  23026730.85308
  -1108176.95908   -863512.19008  23780215.53008  23780219.87908
        -0.73417        -0.38216  25683391.16817  25683396.98616
 -16724648.46009 -13032185.11008  20899866.45009  20899868.86008
 -13651761.91308 -10637731.14308  22858924.39708  22858927.44608
 -25365252.49708 -19765122.45508  20586292.18108  20586294.39908
  -9840063.30108  -7667587.52608  23117053.88308  23117058.87208
 93 04 16 21 42 00.0000000  0  6 13 15 26 19 02 27
  -6521008.80208  -5081290.10908  22941766.51308  22941773.24408
  -1126399.18708   -877711.29508  23776747.91508  23776752.22908
 -13810365.13408 -10761318.04908  22828743.29508  22828746.17708
  -9509338.52208  -7409880.29008  23179989.06108  23179994.09308
 -16712945.39909 -13023065.84408  20902093.53209  20902095.97408
 -25189730.40808 -19628352.10308  20619693.00108  20619695.23608
 93 04 16 21 44 00.0000000  0  6 13 15 26 19 02 27
  -6963660.52008  -5426212.60308  22857532.02408  22857538.42108
  -1136204.64208   -885351.81208  23774881.77708  23774886.35108
 -13960968.98508 -10878671.66408  22800084.32808  22800087.30708
  -9174623.68008  -7149063.97008  23243683.55408  23243688.74708
 -16698524.81909 -13011829.02708  20904837.65609  20904840.16208
 -25007152.84408 -19486083.98108  20654436.46708  20654438.68208
 93 04 16 21 46 00.0000000  0  6 13 15 26 19 02 27
  -7402493.93308  -5768159.81708  22774024.05008  22774030.34208
  -1137710.70108   -886525.29808  23774595.24708  23774599.67808
 -14103624.34008 -10989831.60608  22772937.75808  22772940.81808
  -8836462.46508  -6885562.14808  23308033.89308  23308039.07308
 -16681973.58709 -12998931.97208  20907987.40109  20907989.76408
 -24817536.52308 -19338331.11308  20690519.40308  20690521.65908
 93 04 16 21 48 00.0000000  0  6 13 15 26 19 02 27
  -7837057.76608  -6106780.18008  22691328.71208  22691334.81308
  -1130604.38308   -880987.82208  23775947.56708  23775951.54908
 -14238036.44808 -11094568.25508  22747359.94208  22747362.93808
  -8494397.97208  -6619018.85908  23373127.07808  23373132.39408
 -16662897.92609 -12984067.82408  20911617.33009  20911619.73408
 -24620624.99308 -19184893.67108  20727990.45308  20727992.84108
 93 04 16 21 50 00.0000000  0  6 13 15 26 19 02 27
  -8267272.69608  -6442011.90008  22609461.07408  22609467.01008
  -1114953.39408   -868792.16408  23778925.70808  23778929.96408
 -14364313.32408 -11192965.78708  22723330.30808  22723333.22208
  -8148592.84208  -6349560.79708  23438931.84108  23438937.31808
 -16641401.61109 -12967317.44608  20915707.91809  20915710.35308
 -24416874.95608 -19026127.51508  20766762.93208  20766765.21508
 93 04 16 21 52 00.0000000  0  6 13 15 26 19 02 27
  -8693167.51108  -6773877.33808  22528415.59108  22528421.33308
  -1090929.98308   -850072.52808  23783496.99108  23783501.38308
 -14482550.41708 -11285098.58608  22700830.64908  22700833.47308
  -7799420.60908  -6077479.02108  23505377.39408  23505383.13608
 -16617845.96809 -12948962.39908  20920190.43709  20920192.77108
 -24206619.15008 -18862291.94308  20806773.39608  20806775.72608
 93 04 16 21 54 00.0000000  0  6 13 15 26 19 02 27
  -9113967.81908  -7101773.03608  22448339.46708  22448344.98108
  -1057917.76008   -824348.65408  23789779.15908  23789783.45708
 -14591958.62908 -11370351.74808  22680010.87708  22680013.72308
  -7446538.12308  -5802506.16708  23572529.25108  23572534.96408
 -16591364.19609 -12928327.25808  20925229.71509  20925232.18008
 -23989224.79308 -18692893.85608  20848142.23108  20848144.63808
 93 04 16 21 56 00.0000000  0  6 13 15 26 19 02 27
  -9529857.41008  -7425842.24408  22369197.86008  22369203.16008
  -1016260.20108   -791888.17408  23797706.38008  23797710.48508
 -14693107.97408 -11449169.41708  22660762.85508  22660765.72808
  -7090188.15108  -5524831.41008  23640340.80308  23640346.65908
 -16562317.96309 -12905693.83608  20930757.07309  20930759.44308
 -23764613.52908 -18517872.22008  20890884.35408  20890886.84508
 93 04 16 21 58 00.0000000  0  6 13 15 26 19 02 27
  -9940668.20508  -7745954.03008  22291022.78108  22291027.97108
   -965950.81008   -752686.01908  23807279.71008  23807283.83008
 -14785734.44808 -11521345.89908  22643136.61408  22643139.43208
  -6730448.16908  -5244515.10508  23708797.46208  23708803.48108
 -16530876.03609 -12881193.64508  20936740.21009  20936742.62808
 -23533032.59608 -18337419.69108  20934952.89208  20934955.39308
 93 04 16 22 00 00.0000000  0  6 27 13 15 26 19 02
 -23294522.31908 -18151567.67008  20980340.02808  20980342.49008
 -10345884.60408  -8061706.61208  22213912.35408  22213917.24808
   -906641.52808   -706470.93908  23818565.82308  23818570.05208
 -14869501.88108 -11586619.22408  22627196.26908  22627199.04308
  -6366898.94908  -4961230.57308  23777978.84308  23777985.00308
 -16496727.20909 -12854584.19108  20943238.62609  20943241.02108
 93 04 16 22 02 00.0000000  0  6 27 13 26 15 19 02
 -23048930.64008 -17960197.67708  21027074.67208  21027077.25208
 -10745676.41108  -8373232.27308  22137834.18208  22137838.96208
 -14945005.95108 -11645453.57308  22612828.29208  22612831.18708
   -838672.71808   -653508.20108  23831500.01308  23831504.08908
  -6000114.01208  -4675424.77008  23847776.35008  23847782.42008
 -16460099.47209 -12826043.09908  20950208.61209  20950211.04108
 93 04 16 22 04 00.0000000  0  6 27 13 26 15 19 02
 -22797051.18508 -17763928.11908  21075005.80008  21075008.53108
 -11139961.84108  -8680467.23908  22062803.77108  22062808.50808
 -15012287.45108 -11697880.70308  22600025.05708  22600027.97308
   -762136.27608   -593869.39508  23846064.27308  23846068.35808
  -5630484.85408  -4387402.69808  23918114.83208  23918121.16408
 -16421450.02509 -12795926.64208  20957563.41709  20957565.78908
 93 04 16 22 06 00.0000000  0  6 27 13 26 15 19 02
 -22538173.20108 -17562205.16508  21124268.75308  21124271.46008
 -11528025.05008  -8982853.71008  21988957.45108  21988962.17308
 -15070754.69208 -11743439.57808  22588899.08308  22588902.01108
   -676496.70508   -527137.20108  23862360.84108  23862365.17708
  -5257444.38208  -4096722.46008  23989102.47808  23989109.23208
 -16379898.59109 -12763548.90908  20965470.29009  20965472.69408
 93 04 16 22 08 00.0000000  0  6 27 13 26 15 19 02
 -22271702.72108 -17354565.99308  21174976.66508  21174979.24808
 -11909455.49508  -9280071.80208  21916373.36608  21916378.03608
 -15120059.47608 -11781858.87608  22579516.61508  22579519.54908
   -581523.45608   -453131.99708  23880433.63008  23880437.79308
  -4880705.75008  -3803160.55208  24060793.92608  24060800.88108
 -16335290.62309 -12728789.46508  20973958.97309  20973961.41408
 93 04 16 22 10 00.0000000  0  6 13 15 02 26 27 19
 -12285073.66808  -9572760.88808  21844895.27808  21844899.83208
   -478223.97008   -372638.81408  23900090.71308  23900095.08408
 -16288388.47809 -12692242.36008  20982884.16809  20982886.55108
 -15161050.15108 -11813799.66108  22571716.39508  22571719.16308
 -21998974.96008 -17142051.01408  21226875.09808  21226877.77208
  -4501229.16408  -3507465.19408  24133006.40008  24133013.48308
 93 04 16 22 12 00.0000000  0  6 13 15 02 26 27 19
 -12654653.15408  -9860744.52608  21774566.36508  21774570.81408
   -366559.71108   -285627.67308  23921339.75008  23921344.05808
 -16239363.12609 -12654040.80208  20992213.40609  20992215.82608
 -15194048.59008 -11839512.72708  22565436.98908  22565439.91908
 -21720002.70308 -16924670.19808  21279961.81208  21279964.64708
  -4119333.56408  -3209884.88608  24205679.31108  24205686.36008
 93 04 16 22 14 00.0000000  0  6 13 15 02 26 27 19
 -13017266.52008 -10143300.06308  21705563.11608  21705567.51608
   -245794.48208   -191524.92508  23944320.60308  23944324.75008
 -16187586.30509 -12613695.23408  21002066.17409  21002068.64908
 -15217970.31508 -11858153.03008  22560884.79508  22560887.75508
 -21434069.53308 -16701865.30008  21334373.33008  21334376.11708
  -3734031.40608  -2909650.12008  24279000.51908  24279007.56408
 93 04 16 22 16 00.0000000  0  6 13 15 02 26 27 19
 -13372137.94108 -10419822.93408  21638033.07708  21638037.35708
   -115344.31008    -89875.49408  23969144.59508  23969148.68708
 -16132199.50109 -12570536.69108  21012605.92309  21012608.35608
 -15232280.95008 -11869304.17008  22558161.57908  22558164.53208
 -21140635.71008 -16473215.74808  21390212.00808  21390214.73908
  -3345083.31108  -2606574.36908  24353015.24308  24353022.73908
 93 04 16 22 18 00.0000000  0  6 13 15 02 26 27 19
 -13719357.43508 -10690383.28408  21571959.27108  21571963.35508
     24503.34608     19096.63008  23995756.69208  23995760.96008
 -16073509.44809 -12524804.19608  21023774.32909  21023776.76408
 -15237393.73708 -11873288.18108  22557188.62908  22557191.48708
 -20840107.38808 -16239038.01208  21447400.76608  21447403.53908
  -2952604.42408  -2300747.34408  24427702.01208  24427709.70908
 93 04 16 22 20 00.0000000  0  6 13 15 02 26 27 19
 -14059987.78708 -10955809.23808  21507139.22208  21507143.27808
    172485.26908    134407.16108  24023916.76408  24023921.01108
 -16012750.57409 -12477459.61708  21035336.37409  21035338.77808
 -15234294.99608 -11870873.60708  22557778.39608  22557781.30008
 -20533552.60408 -16000164.33008  21505736.26508  21505739.20508
  -2558052.68808  -1993305.11208  24502783.32808  24502791.07008
 93 04 16 22 22 00.0000000  0  6 13 02 15 26 27 19
 -14394511.24808 -11216476.58908  21443481.21008  21443485.29108
 -15950618.95909 -12429045.36608  21047159.57909  21047162.00308
    327921.69108    255526.38507  24053495.35008  24053499.51807
 -15223897.89408 -11862771.98608  22559756.89208  22559759.84108
 -20221832.66708 -15757265.85908  21565054.85108  21565057.73808
  -2162038.26708  -1684723.10808  24578142.75508  24578150.82108
 93 04 16 22 24 00.0000000  0  6 13 02 15 26 27 19
 -14722346.65408 -11471932.49408  21381096.08508  21381099.96608
 -15886149.13609 -12378809.13708  21059427.73409  21059430.18208
    491191.57408    382749.59807  24084564.73608  24084568.72307
 -15205725.50408 -11848611.70608  22563214.89708  22563217.82108
 -19904707.49308 -15510155.53208  21625401.87208  21625404.78008
  -1764232.66908  -1374745.35108  24653843.02308  24653851.34908
 93 04 16 22 26 00.0000000  0  6 13 02 15 26 27 19
 -15043334.72308 -11722052.82908  21320013.89808  21320017.79808
 -15819707.91709 -12327036.77208  21072071.13409  21072073.51308
    662250.53708    516042.18408  24117116.49508  24117120.49408
 -15179646.18008 -11828290.18808  22568177.75808  22568180.64708
 -19581821.15808 -15258555.98808  21686845.28008  21686848.28208
  -1364885.25208  -1063566.18307  24729837.04008  24729845.18707
 93 04 16 22 28 00.0000000  0  6 13 02 15 26 27 19
 -15356988.83508 -11966458.40208  21260327.35008  21260331.19908
 -15751327.86809 -12273753.63408  21085083.48409  21085085.85708
    841382.11608    655625.13907  24151204.04108  24151208.02407
 -15145716.72208 -11801851.69908  22574634.27208  22574637.19508
 -19253356.26708 -15002609.52808  21749350.25308  21749353.26208
   -963455.04808   -750764.07508  24806227.38208  24806235.62608
 93 04 16 22 30 00.0000000  0  6 13 02 15 26 27 19
 -15662415.43108 -12204452.93408  21202206.40508  21202210.17708
 -15679696.38809 -12217936.91508  21098714.41509  21098716.90508
   1029271.32808    802032.23307  24186958.08008  24186962.21307
 -15102758.12608 -11768377.52808  22582809.13708  22582812.01808
 -18918448.71808 -14741642.81808  21813081.17908  21813084.29108
   -559356.53308   -435882.79608  24883125.15708  24883133.68208
 93 04 16 22 40 00.0000000  0  6 02 26 27 15 19 13
        -0.80918        -0.61318  21173702.35418  21173704.81418
        -0.24918        -0.92918  22645783.58118  22645786.69418
        -0.35518        -0.63918  22147186.53018  22147190.01318
        -0.41518        -0.16317  24387781.53418  24387785.88317
         0.35718        -0.21917  25271999.28818  25272008.88117
        -0.85018        -0.96818  20933507.42018  20933510.94418
 93 04 16 22 42 00.0000000  0  5 02 26 27 15 13
     89975.36908     70110.66308  21190824.28508  21190826.80208
     92962.58808     72437.56908  22663473.97008  22663477.10408
    370340.91508    288576.73808  22217660.52008  22217663.82608
    237497.20308    185062.74207  24432975.70408  24432980.25107
   -254691.69008   -198461.16908  20885041.23808  20885044.72308
 93 04 16 22 44 00.0000000  0  5 02 26 27 15 13
    182990.88008    142590.26508  21208524.48308  21208527.00708
    193788.10208    151002.82408  22682660.46208  22682663.57408
    746300.57908    581532.09108  22289203.27208  22289206.77708
    482734.35708    376156.45207  24479642.92108  24479647.47707
   -500738.73108   -390185.94908  20838219.88808  20838223.34708
 93 04 16 22 46 00.0000000  0  5 02 26 27 15 13
    279329.66308    217659.43508  21226857.19808  21226859.71508
    303034.62508    236129.89008  22703449.41208  22703452.55608
   1128065.36908    879010.90808  22361850.72508  22361854.43608
    736081.82308    573569.87507  24527853.56108  24527858.17907
   -737569.54608   -574729.25108  20793152.27808  20793155.75908
 93 04 16 22 48 00.0000000  0  5 02 26 27 15 13
    379640.90108    295824.03608  21245945.86408  21245948.28808
    420598.38708    327737.90008  22725821.07808  22725824.26908
   1515790.05208   1181133.80108  22435632.64308  22435636.20508
    997804.54408    777509.49207  24577657.83308  24577662.37607
   -964718.83508   -751728.51408  20749927.03708  20749930.41308
 93 04 16 22 50 00.0000000  0  5 02 26 27 15 13
    482647.65308    376089.02908  21265547.33908  21265549.78208
    545632.78008    425167.18708  22749614.45808  22749617.58208
   1908365.93208   1487036.84608  22510337.51008  22510341.15308
   1266886.39308    987183.53207  24628862.37408  24628867.01507
  -1183004.63008   -921821.17808  20708388.52308  20708391.81908
 93 04 16 22 52 00.0000000  0  6 02 26 27 15 24 13
    587973.40508    458161.01808  21285590.19708  21285592.62508
    677138.24108    527638.84908  22774639.16508  22774642.31208
   2304744.28108   1795902.83208  22585765.72008  22585769.59508
   1542037.19007   1201586.59907  24681221.85807  24681226.59307
        -0.70617        -0.87517  25178247.68417  25178259.27517
  -1393521.86308  -1085860.42108  20668328.21008  20668331.56108
 93 04 16 22 54 00.0000000  0  6 02 26 27 13 15 24
    694506.25708    541173.60208  21305862.74008  21305865.16408
    814075.35708    634342.95508  22800697.53108  22800700.66008
   2704111.28308   2107097.64608  22661762.98908  22661766.74108
  -1596791.51808  -1244252.19808  20629647.08508  20629650.39408
   1822542.99707   1420162.37507  24734600.57507  24734605.39007
   -416596.92607   -324619.23407  25098970.73707  25098981.74207
 93 04 16 22 56 00.0000000  0  7 02 26 27 13 15 24 12
    802856.51508    625602.35208  21326481.05408  21326483.55408
    956889.02508    745626.17108  22827874.16708  22827877.42408
   3107036.60908   2421065.16408  22738437.29908  22738441.18108
  -1792198.51009  -1396517.23208  20592462.29909  20592465.51908
   2108826.69107   1643240.39307  24789078.61107  24789083.42407
   -836216.87107   -651593.82607  25019118.41407  25019128.69007
        -0.33117         0.02816  25334723.47617  25334729.20516
 93 04 16 22 58 00.0000000  0  7 02 26 27 13 15 24 12
    913006.41208    711433.41108  21347441.99208  21347444.30208
   1105496.41608    861423.97208  22856153.21008  22856156.62408
   3513292.78308   2737628.12108  22815745.53608  22815749.54708
  -1979847.73509  -1542737.26208  20556753.67709  20556756.92708
   2400596.56607   1870593.36707  24844600.84007  24844605.66307
  -1257975.59207   -980235.05707  24938858.99507  24938868.77707
   -378524.21807   -294953.65607  25262692.86307  25262698.68007
